Time,TemperatureF,DewpointF,PressureIn,WindDirection,WindDirectionDegrees,WindSpeedMPH,WindSpeedGustMPH,Humidity,HourlyPrecipIn,Conditions,Clouds,dailyrainin,SoftwareType,DateUTC
2013-10-22 00:00:00,56.5,19.8,30.02,North,0,0.0,0.0,24,0.00,,,0.00,WUHU216HW,2013-10-22 07:00:00,
2013-10-22 00:01:00,56.3,19.6,30.02,North,0,0.0,0.0,24,0.00,,,0.00,WUHU216HW,2013-10-22 07:01:00,
2013-10-22 00:02:00,56.3,19.6,30.02,North,0,0.0,0.0,24,0.00,,,0.00,WUHU216HW,2013-10-22 07:02:00,
2013-10-22 00:03:00,56.3,19.6,30.02,North,0,0.0,0.0,24,0.00,,,0.00,WUHU216HW,2013-10-22 07:03:00,
2013-10-22 00:05:00,56.2,19.4,30.02,North,0,0.0,0.0,24,0.00,,,0.00,WUHU216HW,2013-10-22 07:05:00,
2013-10-22 00:06:00,56.2,19.4,30.02,North,0,0.0,0.0,24,0.00,,,0.00,WUHU216HW,2013-10-22 07:06:00,
2013-10-22 00:07:00,56.2,19.4,30.02,North,0,0.0,0.0,24,0.00,,,0.00,WUHU216HW,2013-10-22 07:07:00,
2013-10-22 00:09:00,56.2,19.4,30.02,North,0,0.0,0.0,24,0.00,,,0.00,WUHU216HW,2013-10-22 07:09:00,
2013-10-22 00:10:00,56.2,19.4,30.02,North,0,0.0,0.0,24,0.00,,,0.00,WUHU216HW,2013-10-22 07:10:00,
2013-10-22 00:12:00,56.2,19.4,30.02,North,0,0.0,0.0,24,0.00,,,0.00,WUHU216HW,2013-10-22 07:12:00,
2013-10-22 00:13:00,56.2,19.4,30.02,North,0,0.0,0.0,24,0.00,,,0.00,WUHU216HW,2013-10-22 07:13:00,
2013-10-22 00:15:00,56.2,19.4,30.02,North,0,0.0,0.0,24,0.00,,,0.00,WUHU216HW,2013-10-22 07:15:00,
2013-10-22 00:16:00,56.2,19.4,30.02,North,0,0.0,0.0,24,0.00,,,0.00,WUHU216HW,2013-10-22 07:16:00,
2013-10-22 00:17:00,56.2,19.4,30.02,North,0,0.0,0.0,24,0.00,,,0.00,WUHU216HW,2013-10-22 07:17:00,
2013-10-22 00:19:00,56.0,19.4,30.02,North,0,0.0,0.0,24,0.00,,,0.00,WUHU216HW,2013-10-22 07:19:00,
2013-10-22 00:20:00,56.0,19.4,30.02,North,0,0.0,0.0,24,0.00,,,0.00,WUHU216HW,2013-10-22 07:20:00,
2013-10-22 00:21:00,56.0,19.4,30.02,North,0,0.0,0.0,24,0.00,,,0.00,WUHU216HW,2013-10-22 07:21:00,
2013-10-22 00:22:00,56.0,19.4,30.02,North,0,0.0,0.0,24,0.00,,,0.00,WUHU216HW,2013-10-22 07:22:00,
2013-10-22 00:23:00,56.0,19.4,30.02,North,0,0.0,0.0,24,0.00,,,0.00,WUHU216HW,2013-10-22 07:23:00,
2013-10-22 00:25:00,55.8,19.2,30.02,North,0,0.0,0.0,24,0.00,,,0.00,WUHU216HW,2013-10-22 07:25:00,
2013-10-22 00:27:00,55.8,20.1,30.02,North,0,0.0,0.0,25,0.00,,,0.00,WUHU216HW,2013-10-22 07:27:00,
2013-10-22 00:28:00,55.8,20.1,30.02,North,0,0.0,0.0,25,0.00,,,0.00,WUHU216HW,2013-10-22 07:28:00,
2013-10-22 00:30:00,55.8,20.1,30.02,North,0,0.0,0.0,25,0.00,,,0.00,WUHU216HW,2013-10-22 07:30:00,
2013-10-22 00:31:00,55.8,20.1,30.02,North,0,0.0,0.0,25,0.00,,,0.00,WUHU216HW,2013-10-22 07:31:00,
2013-10-22 00:32:00,55.8,19.2,30.03,North,0,0.0,0.0,24,0.00,,,0.00,WUHU216HW,2013-10-22 07:32:00,
2013-10-22 00:33:00,55.8,19.2,30.03,North,0,0.0,0.0,24,0.00,,,0.00,WUHU216HW,2013-10-22 07:33:00,
2013-10-22 00:35:00,55.8,20.1,30.03,North,0,0.0,0.0,25,0.00,,,0.00,WUHU216HW,2013-10-22 07:35:00,
2013-10-22 00:36:00,55.8,20.1,30.03,North,0,0.0,0.0,25,0.00,,,0.00,WUHU216HW,2013-10-22 07:36:00,
2013-10-22 00:38:00,56.0,20.3,30.03,North,0,0.0,0.0,25,0.00,,,0.00,WUHU216HW,2013-10-22 07:38:00,
2013-10-22 00:41:00,56.2,20.4,30.03,North,0,0.0,0.0,25,0.00,,,0.00,WUHU216HW,2013-10-22 07:41:00,
2013-10-22 00:43:00,56.2,20.4,30.03,North,0,0.0,0.0,25,0.00,,,0.00,WUHU216HW,2013-10-22 07:43:00,
2013-10-22 00:44:00,56.2,20.4,30.03,North,0,0.0,0.0,25,0.00,,,0.00,WUHU216HW,2013-10-22 07:44:00,
2013-10-22 00:46:00,56.2,19.4,30.03,North,0,0.0,0.0,24,0.00,,,0.00,WUHU216HW,2013-10-22 07:46:00,
2013-10-22 00:47:00,56.2,19.4,30.03,North,0,0.0,0.0,24,0.00,,,0.00,WUHU216HW,2013-10-22 07:47:00,
2013-10-22 00:48:00,56.2,19.4,30.03,North,0,0.0,0.0,24,0.00,,,0.00,WUHU216HW,2013-10-22 07:48:00,
2013-10-22 00:49:00,56.2,19.4,30.03,North,0,0.0,0.0,24,0.00,,,0.00,WUHU216HW,2013-10-22 07:49:00,
2013-10-22 00:52:00,56.2,19.4,30.03,North,0,0.0,0.0,24,0.00,,,0.00,WUHU216HW,2013-10-22 07:52:00,
2013-10-22 00:54:00,56.2,19.4,30.03,North,0,0.0,0.0,24,0.00,,,0.00,WUHU216HW,2013-10-22 07:54:00,
2013-10-22 00:55:00,56.2,19.4,30.03,North,0,0.0,0.0,24,0.00,,,0.00,WUHU216HW,2013-10-22 07:55:00,
2013-10-22 00:57:00,56.2,19.4,30.03,North,0,0.0,0.0,24,0.00,,,0.00,WUHU216HW,2013-10-22 07:57:00,
2013-10-22 00:58:00,56.0,19.4,30.03,North,0,0.0,0.0,24,0.00,,,0.00,WUHU216HW,2013-10-22 07:58:00,
2013-10-22 00:59:00,56.0,19.4,30.03,North,0,0.0,0.0,24,0.00,,,0.00,WUHU216HW,2013-10-22 07:59:00,
2013-10-22 01:00:00,56.0,19.4,30.03,North,0,0.0,0.0,24,0.00,,,0.00,WUHU216HW,2013-10-22 08:00:00,
2013-10-22 01:01:00,56.0,19.4,30.03,North,0,0.0,0.0,24,0.00,,,0.00,WUHU216HW,2013-10-22 08:01:00,
2013-10-22 01:02:00,56.0,19.4,30.03,North,0,0.0,0.0,24,0.00,,,0.00,WUHU216HW,2013-10-22 08:02:00,
2013-10-22 01:03:00,56.0,19.4,30.03,North,0,0.0,0.0,24,0.00,,,0.00,WUHU216HW,2013-10-22 08:03:00,
2013-10-22 01:04:00,56.0,19.4,30.03,North,0,0.0,0.0,24,0.00,,,0.00,WUHU216HW,2013-10-22 08:04:00,
2013-10-22 01:05:00,55.8,19.2,30.03,North,0,0.0,0.0,24,0.00,,,0.00,WUHU216HW,2013-10-22 08:05:00,
2013-10-22 01:06:00,55.8,19.2,30.03,North,0,0.0,0.0,24,0.00,,,0.00,WUHU216HW,2013-10-22 08:06:00,
2013-10-22 01:07:00,55.8,19.2,30.03,North,0,0.0,0.0,24,0.00,,,0.00,WUHU216HW,2013-10-22 08:07:00,
2013-10-22 01:09:00,55.8,19.2,30.03,North,0,0.0,0.0,24,0.00,,,0.00,WUHU216HW,2013-10-22 08:09:00,
2013-10-22 01:10:00,55.8,19.2,30.03,North,0,0.0,0.0,24,0.00,,,0.00,WUHU216HW,2013-10-22 08:10:00,
2013-10-22 01:11:00,55.8,19.2,30.03,North,0,0.0,0.0,24,0.00,,,0.00,WUHU216HW,2013-10-22 08:11:00,
2013-10-22 01:12:00,55.8,19.2,30.03,North,0,0.0,0.0,24,0.00,,,0.00,WUHU216HW,2013-10-22 08:12:00,
2013-10-22 01:15:00,55.8,19.2,30.03,North,0,0.0,0.0,24,0.00,,,0.00,WUHU216HW,2013-10-22 08:15:00,
2013-10-22 01:16:00,55.6,19.0,30.03,North,0,0.0,0.0,24,0.00,,,0.00,WUHU216HW,2013-10-22 08:16:00,
2013-10-22 01:18:00,55.6,19.0,30.03,North,0,0.0,0.0,24,0.00,,,0.00,WUHU216HW,2013-10-22 08:18:00,
2013-10-22 01:20:00,55.6,19.0,30.03,North,0,0.0,0.0,24,0.00,,,0.00,WUHU216HW,2013-10-22 08:20:00,
2013-10-22 01:21:00,55.4,18.9,30.03,North,0,0.0,0.0,24,0.00,,,0.00,WUHU216HW,2013-10-22 08:21:00,
2013-10-22 01:23:00,55.4,18.9,30.03,North,0,0.0,0.0,24,0.00,,,0.00,WUHU216HW,2013-10-22 08:23:00,
2013-10-22 01:26:00,55.3,18.7,30.03,North,0,0.0,0.0,24,0.00,,,0.00,WUHU216HW,2013-10-22 08:26:00,
2013-10-22 01:27:00,55.1,18.5,30.03,North,0,0.0,0.0,24,0.00,,,0.00,WUHU216HW,2013-10-22 08:27:00,
2013-10-22 01:28:00,55.1,18.5,30.03,North,0,0.0,0.0,24,0.00,,,0.00,WUHU216HW,2013-10-22 08:28:00,
2013-10-22 01:29:00,55.1,18.5,30.03,North,0,0.0,0.0,24,0.00,,,0.00,WUHU216HW,2013-10-22 08:29:00,
2013-10-22 01:31:00,55.1,18.5,30.03,North,0,0.0,0.0,24,0.00,,,0.00,WUHU216HW,2013-10-22 08:31:00,
2013-10-22 01:32:00,54.9,19.4,30.03,North,0,0.0,0.0,25,0.00,,,0.00,WUHU216HW,2013-10-22 08:32:00,
2013-10-22 01:33:00,54.9,19.4,30.03,North,0,0.0,0.0,25,0.00,,,0.00,WUHU216HW,2013-10-22 08:33:00,
2013-10-22 01:34:00,54.9,19.4,30.03,North,0,0.0,0.0,25,0.00,,,0.00,WUHU216HW,2013-10-22 08:34:00,
2013-10-22 01:36:00,54.9,19.4,30.03,North,0,0.0,0.0,25,0.00,,,0.00,WUHU216HW,2013-10-22 08:36:00,
2013-10-22 01:37:00,54.9,19.4,30.03,North,0,0.0,0.0,25,0.00,,,0.00,WUHU216HW,2013-10-22 08:37:00,
2013-10-22 01:38:00,54.7,19.2,30.03,North,0,0.0,0.0,25,0.00,,,0.00,WUHU216HW,2013-10-22 08:38:00,
2013-10-22 01:40:00,54.7,19.2,30.03,North,0,0.0,0.0,25,0.00,,,0.00,WUHU216HW,2013-10-22 08:40:00,
2013-10-22 01:41:00,54.7,19.2,30.03,North,0,0.0,0.0,25,0.00,,,0.00,WUHU216HW,2013-10-22 08:41:00,
2013-10-22 01:42:00,54.7,19.2,30.03,North,0,0.0,0.0,25,0.00,,,0.00,WUHU216HW,2013-10-22 08:42:00,
2013-10-22 01:44:00,54.7,19.2,30.03,North,0,0.0,0.0,25,0.00,,,0.00,WUHU216HW,2013-10-22 08:44:00,
2013-10-22 01:45:00,54.7,19.2,30.03,North,0,0.0,0.0,25,0.00,,,0.00,WUHU216HW,2013-10-22 08:45:00,
2013-10-22 01:46:00,54.7,19.2,30.03,North,0,0.0,0.0,25,0.00,,,0.00,WUHU216HW,2013-10-22 08:46:00,
2013-10-22 01:47:00,54.7,19.2,30.03,North,0,0.0,0.0,25,0.00,,,0.00,WUHU216HW,2013-10-22 08:47:00,
2013-10-22 01:48:00,54.7,19.2,30.03,North,0,0.0,0.0,25,0.00,,,0.00,WUHU216HW,2013-10-22 08:48:00,
2013-10-22 01:51:00,54.5,19.1,30.03,North,0,0.0,0.0,25,0.00,,,0.00,WUHU216HW,2013-10-22 08:51:00,
2013-10-22 01:53:00,54.4,18.9,30.03,North,0,0.0,0.0,25,0.00,,,0.00,WUHU216HW,2013-10-22 08:53:00,
2013-10-22 01:56:00,54.0,20.5,30.03,North,0,0.0,0.0,27,0.00,,,0.00,WUHU216HW,2013-10-22 08:56:00,
2013-10-22 01:57:00,53.8,20.4,30.03,North,0,0.0,0.0,27,0.00,,,0.00,WUHU216HW,2013-10-22 08:57:00,
2013-10-22 01:58:00,53.6,20.2,30.03,North,0,0.0,0.0,27,0.00,,,0.00,WUHU216HW,2013-10-22 08:58:00,
2013-10-22 02:00:00,53.6,20.2,30.03,North,0,0.0,0.0,27,0.00,,,0.00,WUHU216HW,2013-10-22 09:00:00,
2013-10-22 02:01:00,53.6,20.2,30.03,North,0,0.0,0.0,27,0.00,,,0.00,WUHU216HW,2013-10-22 09:01:00,
2013-10-22 02:02:00,53.5,20.0,30.03,North,0,0.0,0.0,27,0.00,,,0.00,WUHU216HW,2013-10-22 09:02:00,
2013-10-22 02:03:00,53.5,20.0,30.03,North,0,0.0,0.0,27,0.00,,,0.00,WUHU216HW,2013-10-22 09:03:00,
2013-10-22 02:04:00,53.5,20.0,30.03,North,0,0.0,0.0,27,0.00,,,0.00,WUHU216HW,2013-10-22 09:04:00,
2013-10-22 02:05:00,53.3,20.8,30.03,North,0,0.0,0.0,28,0.00,,,0.00,WUHU216HW,2013-10-22 09:05:00,
2013-10-22 02:06:00,53.3,19.9,30.03,North,0,0.0,0.0,27,0.00,,,0.00,WUHU216HW,2013-10-22 09:06:00,
2013-10-22 02:08:00,53.3,19.9,30.03,North,0,0.0,0.0,27,0.00,,,0.00,WUHU216HW,2013-10-22 09:08:00,
2013-10-22 02:09:00,53.3,20.8,30.03,North,0,0.0,0.0,28,0.00,,,0.00,WUHU216HW,2013-10-22 09:09:00,
2013-10-22 02:10:00,53.1,20.7,30.03,North,0,0.0,0.0,28,0.00,,,0.00,WUHU216HW,2013-10-22 09:10:00,
2013-10-22 02:11:00,53.1,20.7,30.03,North,0,0.0,0.0,28,0.00,,,0.00,WUHU216HW,2013-10-22 09:11:00,
2013-10-22 02:13:00,53.1,20.7,30.03,North,0,0.0,0.0,28,0.00,,,0.00,WUHU216HW,2013-10-22 09:13:00,
2013-10-22 02:14:00,53.1,20.7,30.03,North,0,0.0,0.0,28,0.00,,,0.00,WUHU216HW,2013-10-22 09:14:00,
2013-10-22 02:15:00,53.1,20.7,30.03,North,0,0.0,0.0,28,0.00,,,0.00,WUHU216HW,2013-10-22 09:15:00,
2013-10-22 02:16:00,53.1,20.7,30.03,North,0,0.0,0.0,28,0.00,,,0.00,WUHU216HW,2013-10-22 09:16:00,
2013-10-22 02:18:00,53.1,20.7,30.03,North,0,0.0,0.0,28,0.00,,,0.00,WUHU216HW,2013-10-22 09:18:00,
2013-10-22 02:19:00,53.1,20.7,30.03,North,0,0.0,0.0,28,0.00,,,0.00,WUHU216HW,2013-10-22 09:19:00,
2013-10-22 02:20:00,53.1,20.7,30.03,North,0,0.0,0.0,28,0.00,,,0.00,WUHU216HW,2013-10-22 09:20:00,
2013-10-22 02:21:00,53.1,20.7,30.03,North,0,0.0,0.0,28,0.00,,,0.00,WUHU216HW,2013-10-22 09:21:00,
2013-10-22 02:22:00,52.9,21.4,30.03,North,0,0.0,0.0,29,0.00,,,0.00,WUHU216HW,2013-10-22 09:22:00,
2013-10-22 02:24:00,52.9,20.5,30.03,North,0,0.0,0.0,28,0.00,,,0.00,WUHU216HW,2013-10-22 09:24:00,
2013-10-22 02:25:00,52.9,20.5,30.03,North,0,0.0,0.0,28,0.00,,,0.00,WUHU216HW,2013-10-22 09:25:00,
2013-10-22 02:26:00,52.9,20.5,30.03,North,0,0.0,0.0,28,0.00,,,0.00,WUHU216HW,2013-10-22 09:26:00,
2013-10-22 02:27:00,52.9,20.5,30.03,North,0,0.0,0.0,28,0.00,,,0.00,WUHU216HW,2013-10-22 09:27:00,
2013-10-22 02:29:00,52.9,20.5,30.03,North,0,0.0,0.0,28,0.00,,,0.00,WUHU216HW,2013-10-22 09:29:00,
2013-10-22 02:30:00,52.9,20.5,30.03,North,0,0.0,0.0,28,0.00,,,0.00,WUHU216HW,2013-10-22 09:30:00,
2013-10-22 02:31:00,52.9,20.5,30.03,North,0,0.0,0.0,28,0.00,,,0.00,WUHU216HW,2013-10-22 09:31:00,
2013-10-22 02:32:00,52.9,20.5,30.03,North,0,0.0,0.0,28,0.00,,,0.00,WUHU216HW,2013-10-22 09:32:00,
2013-10-22 02:34:00,52.9,20.5,30.03,North,0,0.0,0.0,28,0.00,,,0.00,WUHU216HW,2013-10-22 09:34:00,
2013-10-22 02:35:00,52.9,20.5,30.03,North,0,0.0,0.0,28,0.00,,,0.00,WUHU216HW,2013-10-22 09:35:00,
2013-10-22 02:36:00,52.9,20.5,30.03,North,0,0.0,0.0,28,0.00,,,0.00,WUHU216HW,2013-10-22 09:36:00,
2013-10-22 02:38:00,52.9,20.5,30.03,North,0,0.0,0.0,28,0.00,,,0.00,WUHU216HW,2013-10-22 09:38:00,
2013-10-22 02:39:00,52.9,20.5,30.03,North,0,0.0,0.0,28,0.00,,,0.00,WUHU216HW,2013-10-22 09:39:00,
2013-10-22 02:40:00,52.9,20.5,30.03,North,0,0.0,0.0,28,0.00,,,0.00,WUHU216HW,2013-10-22 09:40:00,
2013-10-22 02:41:00,53.1,20.7,30.03,North,0,0.0,0.0,28,0.00,,,0.00,WUHU216HW,2013-10-22 09:41:00,
2013-10-22 02:43:00,53.1,20.7,30.03,North,0,0.0,0.0,28,0.00,,,0.00,WUHU216HW,2013-10-22 09:43:00,
2013-10-22 02:45:00,53.3,20.8,30.03,North,0,0.0,0.0,28,0.00,,,0.00,WUHU216HW,2013-10-22 09:45:00,
2013-10-22 02:46:00,53.3,20.8,30.03,North,0,0.0,0.0,28,0.00,,,0.00,WUHU216HW,2013-10-22 09:46:00,
2013-10-22 02:48:00,53.3,20.8,30.03,North,0,0.0,0.0,28,0.00,,,0.00,WUHU216HW,2013-10-22 09:48:00,
2013-10-22 02:49:00,53.3,20.8,30.03,North,0,0.0,0.0,28,0.00,,,0.00,WUHU216HW,2013-10-22 09:49:00,
2013-10-22 02:50:00,53.3,20.8,30.03,North,0,0.0,0.0,28,0.00,,,0.00,WUHU216HW,2013-10-22 09:50:00,
2013-10-22 02:51:00,53.3,20.8,30.03,North,0,0.0,0.0,28,0.00,,,0.00,WUHU216HW,2013-10-22 09:51:00,
2013-10-22 02:53:00,53.3,20.8,30.03,North,0,0.0,0.0,28,0.00,,,0.00,WUHU216HW,2013-10-22 09:53:00,
2013-10-22 02:54:00,53.3,20.8,30.02,North,0,0.0,0.0,28,0.00,,,0.00,WUHU216HW,2013-10-22 09:54:00,
2013-10-22 02:55:00,53.5,21.0,30.02,North,0,0.0,0.0,28,0.00,,,0.00,WUHU216HW,2013-10-22 09:55:00,
2013-10-22 02:57:00,53.5,21.0,30.02,North,0,0.0,0.0,28,0.00,,,0.00,WUHU216HW,2013-10-22 09:57:00,
2013-10-22 02:58:00,53.5,21.0,30.02,North,0,0.0,0.0,28,0.00,,,0.00,WUHU216HW,2013-10-22 09:58:00,
2013-10-22 02:59:00,53.5,21.0,30.02,North,0,0.0,0.0,28,0.00,,,0.00,WUHU216HW,2013-10-22 09:59:00,
2013-10-22 03:00:00,53.5,21.0,30.02,North,0,0.0,0.0,28,0.00,,,0.00,WUHU216HW,2013-10-22 10:00:00,
2013-10-22 03:03:00,53.5,21.0,30.02,North,0,0.0,0.0,28,0.00,,,0.00,WUHU216HW,2013-10-22 10:03:00,
2013-10-22 03:04:00,53.5,21.0,30.02,North,0,0.0,0.0,28,0.00,,,0.00,WUHU216HW,2013-10-22 10:04:00,
2013-10-22 03:05:00,53.5,21.0,30.02,North,0,0.0,0.0,28,0.00,,,0.00,WUHU216HW,2013-10-22 10:05:00,
2013-10-22 03:09:00,53.3,20.8,30.02,North,0,0.0,0.0,28,0.00,,,0.00,WUHU216HW,2013-10-22 10:09:00,
2013-10-22 03:10:00,53.3,20.8,30.02,North,0,0.0,0.0,28,0.00,,,0.00,WUHU216HW,2013-10-22 10:10:00,
2013-10-22 03:11:00,53.3,20.8,30.02,North,0,0.0,0.0,28,0.00,,,0.00,WUHU216HW,2013-10-22 10:11:00,
2013-10-22 03:14:00,53.3,20.8,30.02,North,0,0.0,0.0,28,0.00,,,0.00,WUHU216HW,2013-10-22 10:14:00,
2013-10-22 03:15:00,53.3,21.8,30.02,North,0,0.0,0.0,29,0.00,,,0.00,WUHU216HW,2013-10-22 10:15:00,
2013-10-22 03:16:00,53.3,20.8,30.02,North,0,0.0,0.0,28,0.00,,,0.00,WUHU216HW,2013-10-22 10:16:00,
2013-10-22 03:17:00,53.1,20.7,30.02,North,0,0.0,0.0,28,0.00,,,0.00,WUHU216HW,2013-10-22 10:17:00,
2013-10-22 03:19:00,53.1,21.6,30.03,North,0,0.0,0.0,29,0.00,,,0.00,WUHU216HW,2013-10-22 10:19:00,
2013-10-22 03:20:00,52.9,21.4,30.03,North,0,0.0,0.0,29,0.00,,,0.00,WUHU216HW,2013-10-22 10:20:00,
2013-10-22 03:21:00,52.9,21.4,30.03,North,0,0.0,0.0,29,0.00,,,0.00,WUHU216HW,2013-10-22 10:21:00,
2013-10-22 03:22:00,52.9,21.4,30.03,North,0,0.0,0.0,29,0.00,,,0.00,WUHU216HW,2013-10-22 10:22:00,
2013-10-22 03:25:00,52.7,21.3,30.02,North,0,0.0,0.0,29,0.00,,,0.00,WUHU216HW,2013-10-22 10:25:00,
2013-10-22 03:27:00,52.6,21.2,30.02,North,0,0.0,0.0,29,0.00,,,0.00,WUHU216HW,2013-10-22 10:27:00,
2013-10-22 03:28:00,52.4,21.0,30.03,North,0,0.0,0.0,29,0.00,,,0.00,WUHU216HW,2013-10-22 10:28:00,
2013-10-22 03:31:00,52.4,21.0,30.02,North,0,0.0,0.0,29,0.00,,,0.00,WUHU216HW,2013-10-22 10:31:00,
2013-10-22 03:33:00,52.2,20.8,30.02,North,0,0.0,0.0,29,0.00,,,0.00,WUHU216HW,2013-10-22 10:33:00,
2013-10-22 03:36:00,52.2,20.8,30.02,North,0,0.0,0.0,29,0.00,,,0.00,WUHU216HW,2013-10-22 10:36:00,
2013-10-22 03:38:00,52.0,20.6,30.02,North,0,0.0,0.0,29,0.00,,,0.00,WUHU216HW,2013-10-22 10:38:00,
2013-10-22 03:40:00,52.0,21.6,30.02,North,0,0.0,0.0,30,0.00,,,0.00,WUHU216HW,2013-10-22 10:40:00,
2013-10-22 03:42:00,51.8,20.5,30.03,North,0,0.0,0.0,29,0.00,,,0.00,WUHU216HW,2013-10-22 10:42:00,
2013-10-22 03:43:00,51.8,20.5,30.03,North,0,0.0,0.0,29,0.00,,,0.00,WUHU216HW,2013-10-22 10:43:00,
2013-10-22 03:44:00,51.8,20.5,30.03,North,0,0.0,0.0,29,0.00,,,0.00,WUHU216HW,2013-10-22 10:44:00,
2013-10-22 03:45:00,51.8,20.5,30.03,North,0,0.0,0.0,29,0.00,,,0.00,WUHU216HW,2013-10-22 10:45:00,
2013-10-22 03:47:00,51.8,21.4,30.03,North,0,0.0,0.0,30,0.00,,,0.00,WUHU216HW,2013-10-22 10:47:00,
2013-10-22 03:48:00,51.8,21.4,30.03,North,0,0.0,0.0,30,0.00,,,0.00,WUHU216HW,2013-10-22 10:48:00,
2013-10-22 03:49:00,51.7,21.2,30.03,North,0,0.0,0.0,30,0.00,,,0.00,WUHU216HW,2013-10-22 10:49:00,
2013-10-22 03:50:00,51.7,22.0,30.03,North,0,0.0,0.0,31,0.00,,,0.00,WUHU216HW,2013-10-22 10:50:00,
2013-10-22 03:51:00,51.7,22.0,30.03,North,0,0.0,0.0,31,0.00,,,0.00,WUHU216HW,2013-10-22 10:51:00,
2013-10-22 03:53:00,51.5,21.8,30.03,North,0,0.0,0.0,31,0.00,,,0.00,WUHU216HW,2013-10-22 10:53:00,
2013-10-22 03:54:00,51.5,21.1,30.03,North,0,0.0,0.0,30,0.00,,,0.00,WUHU216HW,2013-10-22 10:54:00,
2013-10-22 03:56:00,51.5,21.1,30.03,North,0,0.0,0.0,30,0.00,,,0.00,WUHU216HW,2013-10-22 10:56:00,
2013-10-22 03:58:00,51.7,21.2,30.03,North,0,0.0,0.0,30,0.00,,,0.00,WUHU216HW,2013-10-22 10:58:00,
2013-10-22 03:59:00,51.8,21.4,30.03,North,0,0.0,0.0,30,0.00,,,0.00,WUHU216HW,2013-10-22 10:59:00,
2013-10-22 04:02:00,52.0,21.6,30.03,North,0,0.0,0.0,30,0.00,,,0.00,WUHU216HW,2013-10-22 11:02:00,
2013-10-22 04:03:00,52.0,21.6,30.03,North,0,0.0,0.0,30,0.00,,,0.00,WUHU216HW,2013-10-22 11:03:00,
2013-10-22 04:05:00,52.0,21.6,30.03,North,0,0.0,0.0,30,0.00,,,0.00,WUHU216HW,2013-10-22 11:05:00,
2013-10-22 04:07:00,52.2,21.8,30.03,North,0,0.0,0.0,30,0.00,,,0.00,WUHU216HW,2013-10-22 11:07:00,
2013-10-22 04:08:00,52.2,21.8,30.03,North,0,0.0,0.0,30,0.00,,,0.00,WUHU216HW,2013-10-22 11:08:00,
2013-10-22 04:10:00,52.2,21.8,30.03,North,0,0.0,0.0,30,0.00,,,0.00,WUHU216HW,2013-10-22 11:10:00,
2013-10-22 04:13:00,52.2,21.8,30.03,North,0,0.0,0.0,30,0.00,,,0.00,WUHU216HW,2013-10-22 11:13:00,
2013-10-22 04:14:00,52.2,20.8,30.03,North,0,0.0,0.0,29,0.00,,,0.00,WUHU216HW,2013-10-22 11:14:00,
2013-10-22 04:15:00,52.2,21.8,30.03,North,0,0.0,0.0,30,0.00,,,0.00,WUHU216HW,2013-10-22 11:15:00,
2013-10-22 04:16:00,52.2,20.8,30.03,North,0,0.0,0.0,29,0.00,,,0.00,WUHU216HW,2013-10-22 11:16:00,
2013-10-22 04:17:00,52.2,21.8,30.03,North,0,0.0,0.0,30,0.00,,,0.00,WUHU216HW,2013-10-22 11:17:00,
2013-10-22 04:18:00,52.2,20.8,30.03,North,0,0.0,0.0,29,0.00,,,0.00,WUHU216HW,2013-10-22 11:18:00,
2013-10-22 04:19:00,52.2,21.8,30.03,North,0,0.0,0.0,30,0.00,,,0.00,WUHU216HW,2013-10-22 11:19:00,
2013-10-22 04:20:00,52.2,21.8,30.03,North,0,0.0,0.0,30,0.00,,,0.00,WUHU216HW,2013-10-22 11:20:00,
2013-10-22 04:21:00,52.2,21.8,30.03,North,0,0.0,0.0,30,0.00,,,0.00,WUHU216HW,2013-10-22 11:21:00,
2013-10-22 04:22:00,52.2,21.8,30.03,North,0,0.0,0.0,30,0.00,,,0.00,WUHU216HW,2013-10-22 11:22:00,
2013-10-22 04:23:00,52.2,21.8,30.03,North,0,0.0,0.0,30,0.00,,,0.00,WUHU216HW,2013-10-22 11:23:00,
2013-10-22 04:24:00,52.2,20.8,30.03,North,0,0.0,0.0,29,0.00,,,0.00,WUHU216HW,2013-10-22 11:24:00,
2013-10-22 04:25:00,52.2,20.8,30.03,North,0,0.0,0.0,29,0.00,,,0.00,WUHU216HW,2013-10-22 11:25:00,
2013-10-22 04:26:00,52.2,20.8,30.03,North,0,0.0,0.0,29,0.00,,,0.00,WUHU216HW,2013-10-22 11:26:00,
2013-10-22 04:28:00,52.2,21.8,30.03,North,0,0.0,0.0,30,0.00,,,0.00,WUHU216HW,2013-10-22 11:28:00,
2013-10-22 04:29:00,52.2,20.8,30.03,North,0,0.0,0.0,29,0.00,,,0.00,WUHU216HW,2013-10-22 11:29:00,
2013-10-22 04:31:00,52.2,20.8,30.03,North,0,0.0,0.0,29,0.00,,,0.00,WUHU216HW,2013-10-22 11:31:00,
2013-10-22 04:32:00,52.2,21.8,30.03,North,0,0.0,0.0,30,0.00,,,0.00,WUHU216HW,2013-10-22 11:32:00,
2013-10-22 04:33:00,52.2,21.8,30.03,North,0,0.0,0.0,30,0.00,,,0.00,WUHU216HW,2013-10-22 11:33:00,
2013-10-22 04:34:00,52.0,21.6,30.04,North,0,0.0,0.0,30,0.00,,,0.00,WUHU216HW,2013-10-22 11:34:00,
2013-10-22 04:35:00,52.0,20.6,30.04,North,0,0.0,0.0,29,0.00,,,0.00,WUHU216HW,2013-10-22 11:35:00,
2013-10-22 04:36:00,52.0,21.6,30.04,North,0,0.0,0.0,30,0.00,,,0.00,WUHU216HW,2013-10-22 11:36:00,
2013-10-22 04:37:00,52.0,21.6,30.04,North,0,0.0,0.0,30,0.00,,,0.00,WUHU216HW,2013-10-22 11:37:00,
2013-10-22 04:39:00,51.8,21.4,30.04,North,0,0.0,0.0,30,0.00,,,0.00,WUHU216HW,2013-10-22 11:39:00,
2013-10-22 04:41:00,51.8,21.4,30.04,North,0,0.0,0.0,30,0.00,,,0.00,WUHU216HW,2013-10-22 11:41:00,
2013-10-22 04:44:00,51.7,21.2,30.04,North,0,0.0,0.0,30,0.00,,,0.00,WUHU216HW,2013-10-22 11:44:00,
2013-10-22 04:45:00,51.7,21.2,30.04,North,0,0.0,0.0,30,0.00,,,0.00,WUHU216HW,2013-10-22 11:45:00,
2013-10-22 04:46:00,51.5,21.1,30.04,North,0,0.0,0.0,30,0.00,,,0.00,WUHU216HW,2013-10-22 11:46:00,
2013-10-22 04:49:00,51.5,21.1,30.04,North,0,0.0,0.0,30,0.00,,,0.00,WUHU216HW,2013-10-22 11:49:00,
2013-10-22 04:50:00,51.5,21.1,30.04,North,0,0.0,0.0,30,0.00,,,0.00,WUHU216HW,2013-10-22 11:50:00,
2013-10-22 04:51:00,51.5,21.1,30.04,North,0,0.0,0.0,30,0.00,,,0.00,WUHU216HW,2013-10-22 11:51:00,
2013-10-22 04:52:00,51.3,21.0,30.04,North,0,0.0,0.0,30,0.00,,,0.00,WUHU216HW,2013-10-22 11:52:00,
2013-10-22 04:55:00,51.1,21.4,30.04,North,0,0.0,0.0,31,0.00,,,0.00,WUHU216HW,2013-10-22 11:55:00,
2013-10-22 04:56:00,51.1,21.4,30.04,North,0,0.0,0.0,31,0.00,,,0.00,WUHU216HW,2013-10-22 11:56:00,
2013-10-22 04:57:00,50.9,21.3,30.04,North,0,0.0,0.0,31,0.00,,,0.00,WUHU216HW,2013-10-22 11:57:00,
2013-10-22 04:58:00,50.9,21.3,30.04,North,0,0.0,0.0,31,0.00,,,0.00,WUHU216HW,2013-10-22 11:58:00,
2013-10-22 05:01:00,50.8,21.8,30.04,North,0,0.0,0.0,32,0.00,,,0.00,WUHU216HW,2013-10-22 12:01:00,
2013-10-22 05:02:00,50.6,21.0,30.04,North,0,0.0,0.0,31,0.00,,,0.00,WUHU216HW,2013-10-22 12:02:00,
2013-10-22 05:03:00,50.6,21.0,30.04,North,0,0.0,0.0,31,0.00,,,0.00,WUHU216HW,2013-10-22 12:03:00,
2013-10-22 05:06:00,50.4,21.5,30.04,North,0,0.0,0.0,32,0.00,,,0.00,WUHU216HW,2013-10-22 12:06:00,
2013-10-22 05:07:00,50.4,21.5,30.04,North,0,0.0,0.0,32,0.00,,,0.00,WUHU216HW,2013-10-22 12:07:00,
2013-10-22 05:08:00,50.4,21.5,30.04,North,0,0.0,0.0,32,0.00,,,0.00,WUHU216HW,2013-10-22 12:08:00,
2013-10-22 05:11:00,50.4,21.5,30.04,North,0,0.0,0.0,32,0.00,,,0.00,WUHU216HW,2013-10-22 12:11:00,
2013-10-22 05:12:00,50.4,21.5,30.04,North,0,0.0,0.0,32,0.00,,,0.00,WUHU216HW,2013-10-22 12:12:00,
2013-10-22 05:13:00,50.4,21.5,30.04,North,0,0.0,0.0,32,0.00,,,0.00,WUHU216HW,2013-10-22 12:13:00,
2013-10-22 05:17:00,50.2,21.3,30.04,North,0,0.0,0.0,32,0.00,,,0.00,WUHU216HW,2013-10-22 12:17:00,
2013-10-22 05:18:00,50.2,21.3,30.04,North,0,0.0,0.0,32,0.00,,,0.00,WUHU216HW,2013-10-22 12:18:00,
2013-10-22 05:22:00,50.0,21.2,30.04,North,0,0.0,0.0,32,0.00,,,0.00,WUHU216HW,2013-10-22 12:22:00,
2013-10-22 05:23:00,50.0,21.2,30.05,North,0,0.0,0.0,32,0.00,,,0.00,WUHU216HW,2013-10-22 12:23:00,
2013-10-22 05:24:00,50.0,21.9,30.05,North,0,0.0,0.0,33,0.00,,,0.00,WUHU216HW,2013-10-22 12:24:00,
2013-10-22 05:27:00,49.9,21.7,30.04,North,0,0.0,0.0,33,0.00,,,0.00,WUHU216HW,2013-10-22 12:27:00,
2013-10-22 05:28:00,49.9,21.7,30.04,North,0,0.0,0.0,33,0.00,,,0.00,WUHU216HW,2013-10-22 12:28:00,
2013-10-22 05:29:00,49.7,21.5,30.04,North,0,0.0,0.0,33,0.00,,,0.00,WUHU216HW,2013-10-22 12:29:00,
2013-10-22 05:30:00,49.7,21.5,30.04,North,0,0.0,0.0,33,0.00,,,0.00,WUHU216HW,2013-10-22 12:30:00,
2013-10-22 05:32:00,49.7,21.5,30.05,North,0,0.0,0.0,33,0.00,,,0.00,WUHU216HW,2013-10-22 12:32:00,
2013-10-22 05:33:00,49.7,21.5,30.04,North,0,0.0,0.0,33,0.00,,,0.00,WUHU216HW,2013-10-22 12:33:00,
2013-10-22 05:34:00,49.7,21.5,30.04,North,0,0.0,0.0,33,0.00,,,0.00,WUHU216HW,2013-10-22 12:34:00,
2013-10-22 05:35:00,49.7,21.5,30.05,North,0,0.0,0.0,33,0.00,,,0.00,WUHU216HW,2013-10-22 12:35:00,
2013-10-22 05:38:00,49.5,21.4,30.05,North,0,0.0,0.0,33,0.00,,,0.00,WUHU216HW,2013-10-22 12:38:00,
2013-10-22 05:39:00,49.5,21.4,30.05,North,0,0.0,0.0,33,0.00,,,0.00,WUHU216HW,2013-10-22 12:39:00,
2013-10-22 05:40:00,49.5,21.4,30.05,North,0,0.0,0.0,33,0.00,,,0.00,WUHU216HW,2013-10-22 12:40:00,
2013-10-22 05:43:00,49.3,21.2,30.05,North,0,0.0,0.0,33,0.00,,,0.00,WUHU216HW,2013-10-22 12:43:00,
2013-10-22 05:44:00,49.3,21.2,30.05,North,0,0.0,0.0,33,0.00,,,0.00,WUHU216HW,2013-10-22 12:44:00,
2013-10-22 05:45:00,49.3,21.2,30.05,North,0,0.0,0.0,33,0.00,,,0.00,WUHU216HW,2013-10-22 12:45:00,
2013-10-22 05:49:00,49.3,21.2,30.05,North,0,0.0,0.0,33,0.00,,,0.00,WUHU216HW,2013-10-22 12:49:00,
2013-10-22 05:50:00,49.3,21.2,30.05,North,0,0.0,0.0,33,0.00,,,0.00,WUHU216HW,2013-10-22 12:50:00,
2013-10-22 05:51:00,49.3,21.2,30.05,North,0,0.0,0.0,33,0.00,,,0.00,WUHU216HW,2013-10-22 12:51:00,
2013-10-22 05:54:00,49.3,21.2,30.05,North,0,0.0,0.0,33,0.00,,,0.00,WUHU216HW,2013-10-22 12:54:00,
2013-10-22 05:55:00,49.1,21.1,30.05,North,0,0.0,0.0,33,0.00,,,0.00,WUHU216HW,2013-10-22 12:55:00,
2013-10-22 05:56:00,49.3,21.2,30.05,North,0,0.0,0.0,33,0.00,,,0.00,WUHU216HW,2013-10-22 12:56:00,
2013-10-22 05:59:00,49.1,21.1,30.05,North,0,0.0,0.0,33,0.00,,,0.00,WUHU216HW,2013-10-22 12:59:00,
2013-10-22 06:00:00,49.1,21.1,30.05,North,0,0.0,0.0,33,0.00,,,0.00,WUHU216HW,2013-10-22 13:00:00,
2013-10-22 06:01:00,49.1,21.1,30.05,North,0,0.0,0.0,33,0.00,,,0.00,WUHU216HW,2013-10-22 13:01:00,
2013-10-22 06:02:00,49.1,21.1,30.05,North,0,0.0,0.0,33,0.00,,,0.00,WUHU216HW,2013-10-22 13:02:00,
2013-10-22 06:05:00,49.0,21.0,30.05,North,0,0.0,0.0,33,0.00,,,0.00,WUHU216HW,2013-10-22 13:05:00,
2013-10-22 06:06:00,49.0,21.0,30.05,North,0,0.0,0.0,33,0.00,,,0.00,WUHU216HW,2013-10-22 13:06:00,
2013-10-22 06:07:00,49.0,21.6,30.05,North,0,0.0,0.0,34,0.00,,,0.00,WUHU216HW,2013-10-22 13:07:00,
2013-10-22 06:10:00,48.8,21.5,30.05,North,0,0.0,0.0,34,0.00,,,0.00,WUHU216HW,2013-10-22 13:10:00,
2013-10-22 06:11:00,48.8,21.5,30.05,North,0,0.0,0.0,34,0.00,,,0.00,WUHU216HW,2013-10-22 13:11:00,
2013-10-22 06:12:00,48.6,21.3,30.05,North,0,0.0,0.0,34,0.00,,,0.00,WUHU216HW,2013-10-22 13:12:00,
2013-10-22 06:13:00,48.6,21.3,30.05,North,0,0.0,0.0,34,0.00,,,0.00,WUHU216HW,2013-10-22 13:13:00,
2013-10-22 06:15:00,48.6,21.3,30.05,North,0,0.0,0.0,34,0.00,,,0.00,WUHU216HW,2013-10-22 13:15:00,
2013-10-22 06:16:00,48.6,21.3,30.05,North,0,0.0,0.0,34,0.00,,,0.00,WUHU216HW,2013-10-22 13:16:00,
2013-10-22 06:17:00,48.6,21.3,30.05,North,0,0.0,0.0,34,0.00,,,0.00,WUHU216HW,2013-10-22 13:17:00,
2013-10-22 06:18:00,48.4,21.2,30.05,North,0,0.0,0.0,34,0.00,,,0.00,WUHU216HW,2013-10-22 13:18:00,
2013-10-22 06:21:00,48.4,21.2,30.05,North,0,0.0,0.0,34,0.00,,,0.00,WUHU216HW,2013-10-22 13:21:00,
2013-10-22 06:23:00,48.4,21.2,30.05,North,0,0.0,0.0,34,0.00,,,0.00,WUHU216HW,2013-10-22 13:23:00,
2013-10-22 06:24:00,48.4,21.2,30.05,North,0,0.0,0.0,34,0.00,,,0.00,WUHU216HW,2013-10-22 13:24:00,
2013-10-22 06:26:00,48.2,21.1,30.05,North,0,0.0,0.0,34,0.00,,,0.00,WUHU216HW,2013-10-22 13:26:00,
2013-10-22 06:27:00,48.2,21.1,30.05,North,0,0.0,0.0,34,0.00,,,0.00,WUHU216HW,2013-10-22 13:27:00,
2013-10-22 06:28:00,48.2,21.1,30.05,North,0,0.0,0.0,34,0.00,,,0.00,WUHU216HW,2013-10-22 13:28:00,
2013-10-22 06:29:00,48.2,21.1,30.06,North,0,0.0,0.0,34,0.00,,,0.00,WUHU216HW,2013-10-22 13:29:00,
2013-10-22 06:30:00,48.2,21.1,30.06,North,0,0.0,0.0,34,0.00,,,0.00,WUHU216HW,2013-10-22 13:30:00,
2013-10-22 06:31:00,48.2,21.1,30.05,North,0,0.0,0.0,34,0.00,,,0.00,WUHU216HW,2013-10-22 13:31:00,
2013-10-22 06:32:00,48.2,21.1,30.06,North,0,0.0,0.0,34,0.00,,,0.00,WUHU216HW,2013-10-22 13:32:00,
2013-10-22 06:34:00,48.1,20.9,30.06,North,0,0.0,0.0,34,0.00,,,0.00,WUHU216HW,2013-10-22 13:34:00,
2013-10-22 06:35:00,48.1,20.9,30.06,North,0,0.0,0.0,34,0.00,,,0.00,WUHU216HW,2013-10-22 13:35:00,
2013-10-22 06:36:00,47.9,20.7,30.06,North,0,0.0,0.0,34,0.00,,,0.00,WUHU216HW,2013-10-22 13:36:00,
2013-10-22 06:37:00,47.9,20.7,30.06,North,0,0.0,0.0,34,0.00,,,0.00,WUHU216HW,2013-10-22 13:37:00,
2013-10-22 06:39:00,47.9,21.3,30.05,North,0,0.0,0.0,35,0.00,,,0.00,WUHU216HW,2013-10-22 13:39:00,
2013-10-22 06:40:00,47.9,22.1,30.06,North,0,0.0,0.0,36,0.00,,,0.00,WUHU216HW,2013-10-22 13:40:00,
2013-10-22 06:42:00,47.7,21.9,30.05,North,0,0.0,0.0,36,0.00,,,0.00,WUHU216HW,2013-10-22 13:42:00,
2013-10-22 06:44:00,47.7,21.9,30.06,North,0,0.0,0.0,36,0.00,,,0.00,WUHU216HW,2013-10-22 13:44:00,
2013-10-22 06:45:00,47.5,21.7,30.06,North,0,0.0,0.0,36,0.00,,,0.00,WUHU216HW,2013-10-22 13:45:00,
2013-10-22 06:47:00,47.5,21.7,30.06,North,0,0.0,0.0,36,0.00,,,0.00,WUHU216HW,2013-10-22 13:47:00,
2013-10-22 06:48:00,47.5,21.7,30.05,North,0,0.0,0.0,36,0.00,,,0.00,WUHU216HW,2013-10-22 13:48:00,
2013-10-22 06:49:00,47.3,21.5,30.05,North,0,0.0,0.0,36,0.00,,,0.00,WUHU216HW,2013-10-22 13:49:00,
2013-10-22 06:51:00,47.5,21.7,30.06,North,0,0.0,0.0,36,0.00,,,0.00,WUHU216HW,2013-10-22 13:51:00,
2013-10-22 06:52:00,47.3,21.5,30.05,North,0,0.0,0.0,36,0.00,,,0.00,WUHU216HW,2013-10-22 13:52:00,
2013-10-22 06:53:00,47.3,21.5,30.06,North,0,0.0,0.0,36,0.00,,,0.00,WUHU216HW,2013-10-22 13:53:00,
2013-10-22 06:54:00,47.3,21.5,30.05,North,0,0.0,0.0,36,0.00,,,0.00,WUHU216HW,2013-10-22 13:54:00,
2013-10-22 06:57:00,47.3,21.5,30.05,North,0,0.0,0.0,36,0.00,,,0.00,WUHU216HW,2013-10-22 13:57:00,
2013-10-22 06:58:00,47.3,21.5,30.06,North,0,0.0,0.0,36,0.00,,,0.00,WUHU216HW,2013-10-22 13:58:00,
2013-10-22 06:59:00,47.3,21.5,30.06,North,0,0.0,0.0,36,0.00,,,0.00,WUHU216HW,2013-10-22 13:59:00,
2013-10-22 07:00:00,47.3,21.5,30.05,North,0,0.0,0.0,36,0.00,,,0.00,WUHU216HW,2013-10-22 14:00:00,
2013-10-22 07:02:00,47.3,21.5,30.06,North,0,0.0,0.0,36,0.00,,,0.00,WUHU216HW,2013-10-22 14:02:00,
2013-10-22 07:03:00,47.3,22.2,30.06,North,0,0.0,0.0,37,0.00,,,0.00,WUHU216HW,2013-10-22 14:03:00,
2013-10-22 07:04:00,47.3,22.2,30.05,North,0,0.0,0.0,37,0.00,,,0.00,WUHU216HW,2013-10-22 14:04:00,
2013-10-22 07:05:00,47.3,21.5,30.06,North,0,0.0,0.0,36,0.00,,,0.00,WUHU216HW,2013-10-22 14:05:00,
2013-10-22 07:06:00,47.3,22.2,30.06,North,0,0.0,0.0,37,0.00,,,0.00,WUHU216HW,2013-10-22 14:06:00,
2013-10-22 07:07:00,47.3,22.2,30.06,North,0,0.0,0.0,37,0.00,,,0.00,WUHU216HW,2013-10-22 14:07:00,
2013-10-22 07:08:00,47.3,22.2,30.06,North,0,0.0,0.0,37,0.00,,,0.00,WUHU216HW,2013-10-22 14:08:00,
2013-10-22 07:09:00,47.3,22.2,30.06,North,0,0.0,0.0,37,0.00,,,0.00,WUHU216HW,2013-10-22 14:09:00,
2013-10-22 07:10:00,47.5,22.4,30.06,North,0,0.0,0.0,37,0.00,,,0.00,WUHU216HW,2013-10-22 14:10:00,
2013-10-22 07:12:00,47.5,22.4,30.06,North,0,0.0,0.0,37,0.00,,,0.00,WUHU216HW,2013-10-22 14:12:00,
2013-10-22 07:13:00,47.7,22.5,30.06,North,0,0.0,0.0,37,0.00,,,0.00,WUHU216HW,2013-10-22 14:13:00,
2013-10-22 07:14:00,47.7,22.5,30.06,North,0,0.0,0.0,37,0.00,,,0.00,WUHU216HW,2013-10-22 14:14:00,
2013-10-22 07:15:00,47.9,22.7,30.06,North,0,0.0,0.0,37,0.00,,,0.00,WUHU216HW,2013-10-22 14:15:00,
2013-10-22 07:17:00,48.1,22.9,30.06,North,0,0.0,0.0,37,0.00,,,0.00,WUHU216HW,2013-10-22 14:17:00,
2013-10-22 07:18:00,48.2,23.1,30.06,North,0,0.0,0.0,37,0.00,,,0.00,WUHU216HW,2013-10-22 14:18:00,
2013-10-22 07:19:00,48.4,23.2,30.06,North,0,0.0,0.0,37,0.00,,,0.00,WUHU216HW,2013-10-22 14:19:00,
2013-10-22 07:20:00,48.6,23.3,30.06,North,0,0.0,0.0,37,0.00,,,0.00,WUHU216HW,2013-10-22 14:20:00,
2013-10-22 07:23:00,48.8,23.5,30.06,North,0,0.0,0.0,37,0.00,,,0.00,WUHU216HW,2013-10-22 14:23:00,
2013-10-22 07:24:00,49.0,23.7,30.06,North,0,0.0,0.0,37,0.00,,,0.00,WUHU216HW,2013-10-22 14:24:00,
2013-10-22 07:25:00,49.1,23.1,30.06,North,0,0.0,0.0,36,0.00,,,0.00,WUHU216HW,2013-10-22 14:25:00,
2013-10-22 07:26:00,49.1,23.1,30.06,North,0,0.0,0.0,36,0.00,,,0.00,WUHU216HW,2013-10-22 14:26:00,
2013-10-22 07:28:00,49.3,23.3,30.06,North,0,0.0,0.0,36,0.00,,,0.00,WUHU216HW,2013-10-22 14:28:00,
2013-10-22 07:29:00,49.5,23.4,30.06,North,0,0.0,0.0,36,0.00,,,0.00,WUHU216HW,2013-10-22 14:29:00,
2013-10-22 07:30:00,49.7,23.6,30.06,North,0,0.0,0.0,36,0.00,,,0.00,WUHU216HW,2013-10-22 14:30:00,
2013-10-22 07:31:00,49.9,23.8,30.06,North,0,0.0,0.0,36,0.00,,,0.00,WUHU216HW,2013-10-22 14:31:00,
2013-10-22 07:32:00,50.0,24.0,30.06,North,0,0.0,0.0,36,0.00,,,0.00,WUHU216HW,2013-10-22 14:32:00,
2013-10-22 07:34:00,50.0,24.0,30.06,North,0,0.0,0.0,36,0.00,,,0.00,WUHU216HW,2013-10-22 14:34:00,
2013-10-22 07:35:00,50.2,24.0,30.06,North,0,0.0,0.0,36,0.00,,,0.00,WUHU216HW,2013-10-22 14:35:00,
2013-10-22 07:36:00,50.2,24.0,30.06,North,0,0.0,0.0,36,0.00,,,0.00,WUHU216HW,2013-10-22 14:36:00,
2013-10-22 07:38:00,50.6,24.4,30.06,North,0,0.0,0.0,36,0.00,,,0.00,WUHU216HW,2013-10-22 14:38:00,
2013-10-22 07:39:00,50.8,24.6,30.06,North,0,0.0,0.0,36,0.00,,,0.00,WUHU216HW,2013-10-22 14:39:00,
2013-10-22 07:40:00,50.8,24.6,30.06,North,0,0.0,0.0,36,0.00,,,0.00,WUHU216HW,2013-10-22 14:40:00,
2013-10-22 07:41:00,50.8,24.6,30.06,North,0,0.0,0.0,36,0.00,,,0.00,WUHU216HW,2013-10-22 14:41:00,
2013-10-22 07:42:00,50.8,24.6,30.07,North,0,0.0,0.0,36,0.00,,,0.00,WUHU216HW,2013-10-22 14:42:00,
2013-10-22 07:44:00,50.9,24.0,30.07,North,0,0.0,0.0,35,0.00,,,0.00,WUHU216HW,2013-10-22 14:44:00,
2013-10-22 07:45:00,51.1,24.2,30.07,North,0,0.0,0.0,35,0.00,,,0.00,WUHU216HW,2013-10-22 14:45:00,
2013-10-22 07:46:00,51.3,24.4,30.07,North,0,0.0,0.0,35,0.00,,,0.00,WUHU216HW,2013-10-22 14:46:00,
2013-10-22 07:47:00,51.5,24.5,30.06,North,0,0.0,0.0,35,0.00,,,0.00,WUHU216HW,2013-10-22 14:47:00,
2013-10-22 07:49:00,51.5,23.9,30.06,North,0,0.0,0.0,34,0.00,,,0.00,WUHU216HW,2013-10-22 14:49:00,
2013-10-22 07:50:00,51.7,24.0,30.06,North,0,0.0,0.0,34,0.00,,,0.00,WUHU216HW,2013-10-22 14:50:00,
2013-10-22 07:52:00,51.8,24.1,30.06,North,0,0.0,0.0,34,0.00,,,0.00,WUHU216HW,2013-10-22 14:52:00,
2013-10-22 07:53:00,51.8,24.1,30.07,North,0,0.0,0.0,34,0.00,,,0.00,WUHU216HW,2013-10-22 14:53:00,
2013-10-22 07:55:00,52.2,24.5,30.06,North,0,0.0,0.0,34,0.00,,,0.00,WUHU216HW,2013-10-22 14:55:00,
2013-10-22 07:56:00,52.2,24.5,30.07,North,0,0.0,0.0,34,0.00,,,0.00,WUHU216HW,2013-10-22 14:56:00,
2013-10-22 07:57:00,52.4,24.7,30.07,North,0,0.0,0.0,34,0.00,,,0.00,WUHU216HW,2013-10-22 14:57:00,
2013-10-22 07:59:00,52.6,24.9,30.07,North,0,0.0,0.0,34,0.00,,,0.00,WUHU216HW,2013-10-22 14:59:00,
2013-10-22 08:00:00,52.6,24.9,30.06,North,0,0.0,0.0,34,0.00,,,0.00,WUHU216HW,2013-10-22 15:00:00,
2013-10-22 08:01:00,52.7,24.9,30.07,North,0,0.0,0.0,34,0.00,,,0.00,WUHU216HW,2013-10-22 15:01:00,
2013-10-22 08:04:00,52.9,24.5,30.07,North,0,0.0,0.0,33,0.00,,,0.00,WUHU216HW,2013-10-22 15:04:00,
2013-10-22 08:06:00,53.1,24.6,30.07,North,0,0.0,0.0,33,0.00,,,0.00,WUHU216HW,2013-10-22 15:06:00,
2013-10-22 08:08:00,53.3,24.8,30.07,North,0,0.0,0.0,33,0.00,,,0.00,WUHU216HW,2013-10-22 15:08:00,
2013-10-22 08:09:00,53.3,24.8,30.07,North,0,0.0,0.0,33,0.00,,,0.00,WUHU216HW,2013-10-22 15:09:00,
2013-10-22 08:10:00,53.3,24.8,30.07,North,0,0.0,0.0,33,0.00,,,0.00,WUHU216HW,2013-10-22 15:10:00,
2013-10-22 08:11:00,53.5,24.2,30.07,North,0,0.0,0.0,32,0.00,,,0.00,WUHU216HW,2013-10-22 15:11:00,
2013-10-22 08:12:00,53.5,24.2,30.06,North,0,0.0,0.0,32,0.00,,,0.00,WUHU216HW,2013-10-22 15:12:00,
2013-10-22 08:13:00,53.6,25.1,30.07,North,0,0.0,0.0,33,0.00,,,0.00,WUHU216HW,2013-10-22 15:13:00,
2013-10-22 08:14:00,53.6,25.1,30.07,North,0,0.0,0.0,33,0.00,,,0.00,WUHU216HW,2013-10-22 15:14:00,
2013-10-22 08:15:00,53.8,25.2,30.07,North,0,0.0,0.0,33,0.00,,,0.00,WUHU216HW,2013-10-22 15:15:00,
2013-10-22 08:16:00,54.0,24.7,30.07,North,0,0.0,0.0,32,0.00,,,0.00,WUHU216HW,2013-10-22 15:16:00,
2013-10-22 08:17:00,54.0,24.7,30.07,North,0,0.0,0.0,32,0.00,,,0.00,WUHU216HW,2013-10-22 15:17:00,
2013-10-22 08:18:00,54.0,24.7,30.07,North,0,0.0,0.0,32,0.00,,,0.00,WUHU216HW,2013-10-22 15:18:00,
2013-10-22 08:20:00,54.2,24.8,30.07,North,0,0.0,0.0,32,0.00,,,0.00,WUHU216HW,2013-10-22 15:20:00,
2013-10-22 08:21:00,54.4,25.0,30.07,North,0,0.0,0.0,32,0.00,,,0.00,WUHU216HW,2013-10-22 15:21:00,
2013-10-22 08:23:00,54.5,25.1,30.07,North,0,0.0,0.0,32,0.00,,,0.00,WUHU216HW,2013-10-22 15:23:00,
2013-10-22 08:25:00,54.7,25.3,30.07,North,0,0.0,0.0,32,0.00,,,0.00,WUHU216HW,2013-10-22 15:25:00,
2013-10-22 08:26:00,54.9,25.5,30.07,North,0,0.0,0.0,32,0.00,,,0.00,WUHU216HW,2013-10-22 15:26:00,
2013-10-22 08:27:00,54.9,25.5,30.07,North,0,0.0,0.0,32,0.00,,,0.00,WUHU216HW,2013-10-22 15:27:00,
2013-10-22 08:28:00,55.1,25.6,30.07,North,0,0.0,0.0,32,0.00,,,0.00,WUHU216HW,2013-10-22 15:28:00,
2013-10-22 08:29:00,55.1,24.9,30.07,North,0,0.0,0.0,31,0.00,,,0.00,WUHU216HW,2013-10-22 15:29:00,
2013-10-22 08:31:00,55.3,25.0,30.07,North,0,0.0,0.0,31,0.00,,,0.00,WUHU216HW,2013-10-22 15:31:00,
2013-10-22 08:32:00,55.4,25.2,30.07,North,0,0.0,0.0,31,0.00,,,0.00,WUHU216HW,2013-10-22 15:32:00,
2013-10-22 08:34:00,55.6,25.4,30.07,North,0,0.0,0.0,31,0.00,,,0.00,WUHU216HW,2013-10-22 15:34:00,
2013-10-22 08:36:00,55.8,25.5,30.07,North,0,0.0,0.0,31,0.00,,,0.00,WUHU216HW,2013-10-22 15:36:00,
2013-10-22 08:37:00,55.8,25.5,30.07,North,0,0.0,0.0,31,0.00,,,0.00,WUHU216HW,2013-10-22 15:37:00,
2013-10-22 08:39:00,56.0,25.7,30.07,North,0,0.0,0.0,31,0.00,,,0.00,WUHU216HW,2013-10-22 15:39:00,
2013-10-22 08:41:00,56.2,25.8,30.07,North,0,0.0,0.0,31,0.00,,,0.00,WUHU216HW,2013-10-22 15:41:00,
2013-10-22 08:42:00,56.2,25.1,30.07,North,0,0.0,0.0,30,0.00,,,0.00,WUHU216HW,2013-10-22 15:42:00,
2013-10-22 08:44:00,56.3,25.3,30.07,North,0,0.0,0.0,30,0.00,,,0.00,WUHU216HW,2013-10-22 15:44:00,
2013-10-22 08:45:00,56.5,25.5,30.07,North,0,0.0,0.0,30,0.00,,,0.00,WUHU216HW,2013-10-22 15:45:00,
2013-10-22 08:46:00,56.5,25.5,30.07,North,0,0.0,0.0,30,0.00,,,0.00,WUHU216HW,2013-10-22 15:46:00,
2013-10-22 08:48:00,56.7,25.7,30.07,North,0,0.0,0.0,30,0.00,,,0.00,WUHU216HW,2013-10-22 15:48:00,
2013-10-22 08:49:00,56.9,25.7,30.07,North,0,0.0,0.0,30,0.00,,,0.00,WUHU216HW,2013-10-22 15:49:00,
2013-10-22 08:50:00,56.9,25.7,30.07,North,0,0.0,0.0,30,0.00,,,0.00,WUHU216HW,2013-10-22 15:50:00,
2013-10-22 08:51:00,57.1,25.9,30.07,North,0,0.0,0.0,30,0.00,,,0.00,WUHU216HW,2013-10-22 15:51:00,
2013-10-22 08:53:00,57.2,26.1,30.07,North,0,0.0,0.0,30,0.00,,,0.00,WUHU216HW,2013-10-22 15:53:00,
2013-10-22 08:54:00,57.2,26.1,30.07,North,0,0.0,0.0,30,0.00,,,0.00,WUHU216HW,2013-10-22 15:54:00,
2013-10-22 08:55:00,57.2,26.1,30.07,North,0,0.0,0.0,30,0.00,,,0.00,WUHU216HW,2013-10-22 15:55:00,
2013-10-22 08:56:00,57.6,26.5,30.07,North,0,0.0,0.0,30,0.00,,,0.00,WUHU216HW,2013-10-22 15:56:00,
2013-10-22 08:59:00,58.0,26.7,30.07,North,0,0.0,0.0,30,0.00,,,0.00,WUHU216HW,2013-10-22 15:59:00,
2013-10-22 09:01:00,58.1,26.9,30.07,North,0,0.0,0.0,30,0.00,,,0.00,WUHU216HW,2013-10-22 16:01:00,
2013-10-22 09:02:00,58.1,25.9,30.07,North,0,0.0,0.0,29,0.00,,,0.00,WUHU216HW,2013-10-22 16:02:00,
2013-10-22 09:03:00,58.3,26.1,30.07,North,0,0.0,0.0,29,0.00,,,0.00,WUHU216HW,2013-10-22 16:03:00,
2013-10-22 09:04:00,58.5,26.3,30.07,North,0,0.0,0.0,29,0.00,,,0.00,WUHU216HW,2013-10-22 16:04:00,
2013-10-22 09:06:00,58.7,26.5,30.07,North,0,0.0,0.0,29,0.00,,,0.00,WUHU216HW,2013-10-22 16:06:00,
2013-10-22 09:07:00,58.9,26.6,30.07,North,0,0.0,0.0,29,0.00,,,0.00,WUHU216HW,2013-10-22 16:07:00,
2013-10-22 09:08:00,59.0,26.7,30.07,North,0,0.0,0.0,29,0.00,,,0.00,WUHU216HW,2013-10-22 16:08:00,
2013-10-22 09:09:00,59.0,26.7,30.07,North,0,0.0,0.0,29,0.00,,,0.00,WUHU216HW,2013-10-22 16:09:00,
2013-10-22 09:11:00,59.4,27.0,30.06,North,0,0.0,0.0,29,0.00,,,0.00,WUHU216HW,2013-10-22 16:11:00,
2013-10-22 09:12:00,59.4,27.0,30.07,North,0,0.0,0.0,29,0.00,,,0.00,WUHU216HW,2013-10-22 16:12:00,
2013-10-22 09:14:00,59.8,26.4,30.07,North,0,0.0,0.0,28,0.00,,,0.00,WUHU216HW,2013-10-22 16:14:00,
2013-10-22 09:16:00,59.9,26.6,30.06,North,0,0.0,0.0,28,0.00,,,0.00,WUHU216HW,2013-10-22 16:16:00,
2013-10-22 09:17:00,59.9,26.6,30.07,North,0,0.0,0.0,28,0.00,,,0.00,WUHU216HW,2013-10-22 16:17:00,
2013-10-22 09:18:00,59.9,25.6,30.07,North,0,0.0,0.0,27,0.00,,,0.00,WUHU216HW,2013-10-22 16:18:00,
2013-10-22 09:19:00,60.1,26.6,30.07,North,0,0.0,0.0,28,0.00,,,0.00,WUHU216HW,2013-10-22 16:19:00,
2013-10-22 09:20:00,60.1,26.6,30.06,North,0,0.0,0.0,28,0.00,,,0.00,WUHU216HW,2013-10-22 16:20:00,
2013-10-22 09:22:00,60.3,25.8,30.07,North,0,0.0,0.0,27,0.00,,,0.00,WUHU216HW,2013-10-22 16:22:00,
2013-10-22 09:23:00,60.5,26.0,30.06,North,0,0.0,0.0,27,0.00,,,0.00,WUHU216HW,2013-10-22 16:23:00,
2013-10-22 09:25:00,60.7,26.2,30.06,North,0,0.0,0.0,27,0.00,,,0.00,WUHU216HW,2013-10-22 16:25:00,
2013-10-22 09:27:00,60.8,26.3,30.06,North,0,0.0,0.0,27,0.00,,,0.00,WUHU216HW,2013-10-22 16:27:00,
2013-10-22 09:28:00,60.8,26.3,30.06,North,0,0.0,0.0,27,0.00,,,0.00,WUHU216HW,2013-10-22 16:28:00,
2013-10-22 09:29:00,60.8,26.3,30.06,North,0,0.0,0.0,27,0.00,,,0.00,WUHU216HW,2013-10-22 16:29:00,
2013-10-22 09:31:00,61.2,26.7,30.07,North,0,0.0,0.0,27,0.00,,,0.00,WUHU216HW,2013-10-22 16:31:00,
2013-10-22 09:32:00,61.4,26.7,30.06,North,0,0.0,0.0,27,0.00,,,0.00,WUHU216HW,2013-10-22 16:32:00,
2013-10-22 09:33:00,61.4,26.7,30.06,North,0,0.0,0.0,27,0.00,,,0.00,WUHU216HW,2013-10-22 16:33:00,
2013-10-22 09:34:00,61.6,26.9,30.06,North,0,0.0,0.0,27,0.00,,,0.00,WUHU216HW,2013-10-22 16:34:00,
2013-10-22 09:36:00,61.9,27.3,30.07,North,0,0.0,0.0,27,0.00,,,0.00,WUHU216HW,2013-10-22 16:36:00,
2013-10-22 09:37:00,61.9,27.3,30.06,North,0,0.0,0.0,27,0.00,,,0.00,WUHU216HW,2013-10-22 16:37:00,
2013-10-22 09:38:00,62.1,27.4,30.06,North,0,0.0,0.0,27,0.00,,,0.00,WUHU216HW,2013-10-22 16:38:00,
2013-10-22 09:39:00,62.3,27.5,30.06,North,0,0.0,0.0,27,0.00,,,0.00,WUHU216HW,2013-10-22 16:39:00,
2013-10-22 09:40:00,62.3,27.5,30.06,North,0,0.0,0.0,27,0.00,,,0.00,WUHU216HW,2013-10-22 16:40:00,
2013-10-22 09:42:00,62.6,26.9,30.06,North,0,0.0,0.0,26,0.00,,,0.00,WUHU216HW,2013-10-22 16:42:00,
2013-10-22 09:43:00,62.8,27.1,30.06,North,0,0.0,0.0,26,0.00,,,0.00,WUHU216HW,2013-10-22 16:43:00,
2013-10-22 09:44:00,63.0,27.2,30.06,North,0,0.0,0.0,26,0.00,,,0.00,WUHU216HW,2013-10-22 16:44:00,
2013-10-22 09:45:00,63.0,27.2,30.06,North,0,0.0,0.0,26,0.00,,,0.00,WUHU216HW,2013-10-22 16:45:00,
2013-10-22 09:47:00,63.4,26.6,30.06,North,0,0.0,0.0,25,0.00,,,0.00,WUHU216HW,2013-10-22 16:47:00,
2013-10-22 09:48:00,63.4,26.6,30.06,North,0,0.0,0.0,25,0.00,,,0.00,WUHU216HW,2013-10-22 16:48:00,
2013-10-22 09:50:00,63.7,26.8,30.06,North,0,0.0,0.0,25,0.00,,,0.00,WUHU216HW,2013-10-22 16:50:00,
2013-10-22 09:51:00,63.7,26.8,30.06,North,0,0.0,0.0,25,0.00,,,0.00,WUHU216HW,2013-10-22 16:51:00,
2013-10-22 09:52:00,63.7,26.8,30.06,North,0,0.0,0.0,25,0.00,,,0.00,WUHU216HW,2013-10-22 16:52:00,
2013-10-22 09:53:00,63.9,27.0,30.06,North,0,0.0,0.0,25,0.00,,,0.00,WUHU216HW,2013-10-22 16:53:00,
2013-10-22 09:55:00,64.3,28.3,30.06,North,0,0.0,0.0,26,0.00,,,0.00,WUHU216HW,2013-10-22 16:55:00,
2013-10-22 09:56:00,64.3,28.3,30.06,North,0,0.0,0.0,26,0.00,,,0.00,WUHU216HW,2013-10-22 16:56:00,
2013-10-22 09:58:00,64.4,28.4,30.06,North,0,0.0,0.0,26,0.00,,,0.00,WUHU216HW,2013-10-22 16:58:00,
2013-10-22 09:59:00,64.8,28.7,30.06,North,0,0.0,0.0,26,0.00,,,0.00,WUHU216HW,2013-10-22 16:59:00,
2013-10-22 10:01:00,65.0,28.9,30.06,North,0,0.0,0.0,26,0.00,,,0.00,WUHU216HW,2013-10-22 17:01:00,
2013-10-22 10:04:00,65.2,29.1,30.06,North,0,0.0,0.0,26,0.00,,,0.00,WUHU216HW,2013-10-22 17:04:00,
2013-10-22 10:05:00,65.5,28.4,30.06,North,0,0.0,0.0,25,0.00,,,0.00,WUHU216HW,2013-10-22 17:05:00,
2013-10-22 10:06:00,65.5,29.3,30.06,North,0,0.0,0.0,26,0.00,,,0.00,WUHU216HW,2013-10-22 17:06:00,
2013-10-22 10:07:00,65.7,28.5,30.06,North,0,0.0,0.0,25,0.00,,,0.00,WUHU216HW,2013-10-22 17:07:00,
2013-10-22 10:09:00,65.9,28.7,30.06,North,0,0.0,0.0,25,0.00,,,0.00,WUHU216HW,2013-10-22 17:09:00,
2013-10-22 10:11:00,66.2,29.0,30.06,North,0,0.0,0.0,25,0.00,,,0.00,WUHU216HW,2013-10-22 17:11:00,
2013-10-22 10:12:00,66.2,29.0,30.06,North,0,0.0,0.0,25,0.00,,,0.00,WUHU216HW,2013-10-22 17:12:00,
2013-10-22 10:14:00,66.6,28.3,30.06,North,0,0.0,0.0,24,0.00,,,0.00,WUHU216HW,2013-10-22 17:14:00,
2013-10-22 10:15:00,66.6,28.3,30.06,North,0,0.0,0.0,24,0.00,,,0.00,WUHU216HW,2013-10-22 17:15:00,
2013-10-22 10:16:00,66.6,28.3,30.06,North,0,0.0,0.0,24,0.00,,,0.00,WUHU216HW,2013-10-22 17:16:00,
2013-10-22 10:17:00,66.8,28.5,30.06,North,0,0.0,0.0,24,0.00,,,0.00,WUHU216HW,2013-10-22 17:17:00,
2013-10-22 10:20:00,67.0,28.6,30.05,North,0,0.0,0.0,24,0.00,,,0.00,WUHU216HW,2013-10-22 17:20:00,
2013-10-22 10:21:00,67.0,28.6,30.05,North,0,0.0,0.0,24,0.00,,,0.00,WUHU216HW,2013-10-22 17:21:00,
2013-10-22 10:22:00,67.0,28.6,30.05,North,0,0.0,0.0,24,0.00,,,0.00,WUHU216HW,2013-10-22 17:22:00,
2013-10-22 10:23:00,67.0,28.6,30.05,North,0,0.0,0.0,24,0.00,,,0.00,WUHU216HW,2013-10-22 17:23:00,
2013-10-22 10:25:00,67.3,28.9,30.05,North,0,0.0,0.0,24,0.00,,,0.00,WUHU216HW,2013-10-22 17:25:00,
2013-10-22 10:27:00,67.3,28.9,30.05,North,0,0.0,0.0,24,0.00,,,0.00,WUHU216HW,2013-10-22 17:27:00,
2013-10-22 10:29:00,67.5,29.1,30.05,North,0,0.0,0.0,24,0.00,,,0.00,WUHU216HW,2013-10-22 17:29:00,
2013-10-22 10:31:00,67.9,29.3,30.05,North,0,0.0,0.0,24,0.00,,,0.00,WUHU216HW,2013-10-22 17:31:00,
2013-10-22 10:32:00,68.4,29.8,30.05,North,0,0.0,0.0,24,0.00,,,0.00,WUHU216HW,2013-10-22 17:32:00,
2013-10-22 10:33:00,68.4,29.8,30.05,North,0,0.0,0.0,24,0.00,,,0.00,WUHU216HW,2013-10-22 17:33:00,
2013-10-22 10:34:00,68.4,29.8,30.05,North,0,0.0,0.0,24,0.00,,,0.00,WUHU216HW,2013-10-22 17:34:00,
2013-10-22 10:36:00,68.9,29.3,30.05,North,0,0.0,0.0,23,0.00,,,0.00,WUHU216HW,2013-10-22 17:36:00,
2013-10-22 10:37:00,69.1,29.4,30.05,North,0,0.0,0.0,23,0.00,,,0.00,WUHU216HW,2013-10-22 17:37:00,
2013-10-22 10:38:00,69.1,29.4,30.05,North,0,0.0,0.0,23,0.00,,,0.00,WUHU216HW,2013-10-22 17:38:00,
2013-10-22 10:39:00,69.1,29.4,30.05,North,0,0.0,0.0,23,0.00,,,0.00,WUHU216HW,2013-10-22 17:39:00,
2013-10-22 10:40:00,69.3,29.6,30.05,North,0,0.0,0.0,23,0.00,,,0.00,WUHU216HW,2013-10-22 17:40:00,
2013-10-22 10:41:00,69.3,28.5,30.05,North,0,0.0,0.0,22,0.00,,,0.00,WUHU216HW,2013-10-22 17:41:00,
2013-10-22 10:43:00,69.3,29.6,30.05,North,0,0.0,0.0,23,0.00,,,0.00,WUHU216HW,2013-10-22 17:43:00,
2013-10-22 10:44:00,69.3,29.6,30.05,North,0,0.0,0.0,23,0.00,,,0.00,WUHU216HW,2013-10-22 17:44:00,
2013-10-22 10:46:00,69.5,28.7,30.05,North,0,0.0,0.0,22,0.00,,,0.00,WUHU216HW,2013-10-22 17:46:00,
2013-10-22 10:48:00,69.5,28.7,30.05,North,0,0.0,0.0,22,0.00,,,0.00,WUHU216HW,2013-10-22 17:48:00,
2013-10-22 10:49:00,69.5,28.7,30.05,North,0,0.0,0.0,22,0.00,,,0.00,WUHU216HW,2013-10-22 17:49:00,
2013-10-22 10:50:00,69.7,28.9,30.05,North,0,0.0,0.0,22,0.00,,,0.00,WUHU216HW,2013-10-22 17:50:00,
2013-10-22 10:51:00,69.7,28.9,30.05,North,0,0.0,0.0,22,0.00,,,0.00,WUHU216HW,2013-10-22 17:51:00,
2013-10-22 10:53:00,69.8,29.0,30.05,North,0,0.0,0.0,22,0.00,,,0.00,WUHU216HW,2013-10-22 17:53:00,
2013-10-22 10:54:00,70.0,29.2,30.05,North,0,0.0,0.0,22,0.00,,,0.00,WUHU216HW,2013-10-22 17:54:00,
2013-10-22 10:55:00,70.0,29.2,30.04,North,0,0.0,0.0,22,0.00,,,0.00,WUHU216HW,2013-10-22 17:55:00,
2013-10-22 10:56:00,70.0,29.2,30.04,North,0,0.0,0.0,22,0.00,,,0.00,WUHU216HW,2013-10-22 17:56:00,
2013-10-22 10:58:00,70.2,29.4,30.05,North,0,0.0,0.0,22,0.00,,,0.00,WUHU216HW,2013-10-22 17:58:00,
2013-10-22 10:59:00,70.2,28.3,30.04,North,0,0.0,0.0,21,0.00,,,0.00,WUHU216HW,2013-10-22 17:59:00,
2013-10-22 11:00:00,70.2,28.3,30.04,North,0,0.0,0.0,21,0.00,,,0.00,WUHU216HW,2013-10-22 18:00:00,
2013-10-22 11:01:00,70.2,28.3,30.04,North,0,0.0,0.0,21,0.00,,,0.00,WUHU216HW,2013-10-22 18:01:00,
2013-10-22 11:03:00,70.6,28.6,30.04,North,0,0.0,0.0,21,0.00,,,0.00,WUHU216HW,2013-10-22 18:03:00,
2013-10-22 11:05:00,70.6,28.6,30.04,North,0,0.0,0.0,21,0.00,,,0.00,WUHU216HW,2013-10-22 18:05:00,
2013-10-22 11:06:00,70.7,28.7,30.04,North,0,0.0,0.0,21,0.00,,,0.00,WUHU216HW,2013-10-22 18:06:00,
2013-10-22 11:07:00,70.7,28.7,30.04,North,0,0.0,0.0,21,0.00,,,0.00,WUHU216HW,2013-10-22 18:07:00,
2013-10-22 11:08:00,70.9,28.9,30.04,North,0,0.0,0.0,21,0.00,,,0.00,WUHU216HW,2013-10-22 18:08:00,
2013-10-22 11:10:00,71.3,29.2,30.04,North,0,0.0,0.0,21,0.00,,,0.00,WUHU216HW,2013-10-22 18:10:00,
2013-10-22 11:12:00,71.6,29.4,30.04,North,0,0.0,0.0,21,0.00,,,0.00,WUHU216HW,2013-10-22 18:12:00,
2013-10-22 11:13:00,71.8,29.6,30.04,North,0,0.0,0.0,21,0.00,,,0.00,WUHU216HW,2013-10-22 18:13:00,
2013-10-22 11:14:00,71.8,29.6,30.04,North,0,0.0,0.0,21,0.00,,,0.00,WUHU216HW,2013-10-22 18:14:00,
2013-10-22 11:15:00,72.0,29.8,30.04,North,0,0.0,0.0,21,0.00,,,0.00,WUHU216HW,2013-10-22 18:15:00,
2013-10-22 11:16:00,72.0,28.8,30.04,North,0,0.0,0.0,20,0.00,,,0.00,WUHU216HW,2013-10-22 18:16:00,
2013-10-22 11:17:00,72.0,28.8,30.04,North,0,0.0,0.0,20,0.00,,,0.00,WUHU216HW,2013-10-22 18:17:00,
2013-10-22 11:19:00,72.0,27.2,30.04,North,0,0.0,0.0,19,0.00,,,0.00,WUHU216HW,2013-10-22 18:19:00,
2013-10-22 11:20:00,72.0,27.2,30.04,North,0,0.0,0.0,19,0.00,,,0.00,WUHU216HW,2013-10-22 18:20:00,
2013-10-22 11:21:00,72.0,27.2,30.04,North,0,0.0,0.0,19,0.00,,,0.00,WUHU216HW,2013-10-22 18:21:00,
2013-10-22 11:22:00,72.0,27.2,30.04,North,0,0.0,0.0,19,0.00,,,0.00,WUHU216HW,2013-10-22 18:22:00,
2013-10-22 11:23:00,72.0,27.2,30.04,North,0,0.0,0.0,19,0.00,,,0.00,WUHU216HW,2013-10-22 18:23:00,
2013-10-22 11:24:00,72.0,27.2,30.04,North,0,0.0,0.0,19,0.00,,,0.00,WUHU216HW,2013-10-22 18:24:00,
2013-10-22 11:25:00,72.2,27.3,30.04,North,0,0.0,0.0,19,0.00,,,0.00,WUHU216HW,2013-10-22 18:25:00,
2013-10-22 11:26:00,72.0,27.2,30.04,North,0,0.0,0.0,19,0.00,,,0.00,WUHU216HW,2013-10-22 18:26:00,
2013-10-22 11:27:00,72.0,27.2,30.04,North,0,0.0,0.0,19,0.00,,,0.00,WUHU216HW,2013-10-22 18:27:00,
2013-10-22 11:28:00,72.0,27.2,30.04,North,0,0.0,0.0,19,0.00,,,0.00,WUHU216HW,2013-10-22 18:28:00,
2013-10-22 11:29:00,72.2,25.7,30.04,North,0,0.0,0.0,18,0.00,,,0.00,WUHU216HW,2013-10-22 18:29:00,
2013-10-22 11:31:00,72.2,25.7,30.04,North,0,0.0,0.0,18,0.00,,,0.00,WUHU216HW,2013-10-22 18:31:00,
2013-10-22 11:32:00,72.2,25.7,30.03,North,0,0.0,0.0,18,0.00,,,0.00,WUHU216HW,2013-10-22 18:32:00,
2013-10-22 11:33:00,72.2,25.7,30.04,North,0,0.0,0.0,18,0.00,,,0.00,WUHU216HW,2013-10-22 18:33:00,
2013-10-22 11:34:00,72.4,27.5,30.04,North,0,0.0,0.0,19,0.00,,,0.00,WUHU216HW,2013-10-22 18:34:00,
2013-10-22 11:35:00,72.4,25.8,30.04,North,0,0.0,0.0,18,0.00,,,0.00,WUHU216HW,2013-10-22 18:35:00,
2013-10-22 11:36:00,72.4,27.5,30.03,North,0,0.0,0.0,19,0.00,,,0.00,WUHU216HW,2013-10-22 18:36:00,
2013-10-22 11:38:00,72.5,26.0,30.03,North,0,0.0,0.0,18,0.00,,,0.00,WUHU216HW,2013-10-22 18:38:00,
2013-10-22 11:39:00,72.5,26.0,30.03,North,0,0.0,0.0,18,0.00,,,0.00,WUHU216HW,2013-10-22 18:39:00,
2013-10-22 11:40:00,72.7,26.2,30.03,North,0,0.0,0.0,18,0.00,,,0.00,WUHU216HW,2013-10-22 18:40:00,
2013-10-22 11:41:00,72.7,26.2,30.03,North,0,0.0,0.0,18,0.00,,,0.00,WUHU216HW,2013-10-22 18:41:00,
2013-10-22 11:42:00,72.7,26.2,30.03,North,0,0.0,0.0,18,0.00,,,0.00,WUHU216HW,2013-10-22 18:42:00,
2013-10-22 11:43:00,72.7,26.2,30.03,North,0,0.0,0.0,18,0.00,,,0.00,WUHU216HW,2013-10-22 18:43:00,
2013-10-22 11:44:00,72.9,26.3,30.03,North,0,0.0,0.0,18,0.00,,,0.00,WUHU216HW,2013-10-22 18:44:00,
2013-10-22 11:45:00,72.9,26.3,30.03,North,0,0.0,0.0,18,0.00,,,0.00,WUHU216HW,2013-10-22 18:45:00,
2013-10-22 11:47:00,73.1,26.5,30.03,North,0,0.0,0.0,18,0.00,,,0.00,WUHU216HW,2013-10-22 18:47:00,
2013-10-22 11:48:00,73.1,26.5,30.03,North,0,0.0,0.0,18,0.00,,,0.00,WUHU216HW,2013-10-22 18:48:00,
2013-10-22 11:49:00,73.1,26.5,30.03,North,0,0.0,0.0,18,0.00,,,0.00,WUHU216HW,2013-10-22 18:49:00,
2013-10-22 11:50:00,73.1,26.5,30.03,North,0,0.0,0.0,18,0.00,,,0.00,WUHU216HW,2013-10-22 18:50:00,
2013-10-22 11:51:00,73.1,26.5,30.03,North,0,0.0,0.0,18,0.00,,,0.00,WUHU216HW,2013-10-22 18:51:00,
2013-10-22 11:53:00,73.4,26.8,30.02,North,0,0.0,0.0,18,0.00,,,0.00,WUHU216HW,2013-10-22 18:53:00,
2013-10-22 11:54:00,73.4,25.1,30.02,North,0,0.0,0.0,17,0.00,,,0.00,WUHU216HW,2013-10-22 18:54:00,
2013-10-22 11:55:00,73.4,25.1,30.02,North,0,0.0,0.0,17,0.00,,,0.00,WUHU216HW,2013-10-22 18:55:00,
2013-10-22 11:57:00,73.4,26.8,30.02,North,0,0.0,0.0,18,0.00,,,0.00,WUHU216HW,2013-10-22 18:57:00,
2013-10-22 11:58:00,73.4,26.8,30.02,North,0,0.0,0.0,18,0.00,,,0.00,WUHU216HW,2013-10-22 18:58:00,
2013-10-22 11:59:00,73.6,26.9,30.02,North,0,0.0,0.0,18,0.00,,,0.00,WUHU216HW,2013-10-22 18:59:00,
2013-10-22 12:00:00,73.6,26.9,30.02,North,0,0.0,0.0,18,0.00,,,0.00,WUHU216HW,2013-10-22 19:00:00,
2013-10-22 12:03:00,73.8,27.1,30.02,North,0,0.0,0.0,18,0.00,,,0.00,WUHU216HW,2013-10-22 19:03:00,
2013-10-22 12:04:00,73.8,27.1,30.02,North,0,0.0,0.0,18,0.00,,,0.00,WUHU216HW,2013-10-22 19:04:00,
2013-10-22 12:05:00,74.0,27.2,30.02,North,0,0.0,0.0,18,0.00,,,0.00,WUHU216HW,2013-10-22 19:05:00,
2013-10-22 12:06:00,74.0,27.2,30.02,North,0,0.0,0.0,18,0.00,,,0.00,WUHU216HW,2013-10-22 19:06:00,
2013-10-22 12:08:00,74.3,25.8,30.02,North,0,0.0,0.0,17,0.00,,,0.00,WUHU216HW,2013-10-22 19:08:00,
2013-10-22 12:09:00,74.3,25.8,30.02,North,0,0.0,0.0,17,0.00,,,0.00,WUHU216HW,2013-10-22 19:09:00,
2013-10-22 12:10:00,74.3,25.8,30.02,North,0,0.0,0.0,17,0.00,,,0.00,WUHU216HW,2013-10-22 19:10:00,
2013-10-22 12:11:00,74.3,25.8,30.02,North,0,0.0,0.0,17,0.00,,,0.00,WUHU216HW,2013-10-22 19:11:00,
2013-10-22 12:13:00,74.5,27.6,30.01,North,0,0.0,0.0,18,0.00,,,0.00,WUHU216HW,2013-10-22 19:13:00,
2013-10-22 12:14:00,74.5,27.6,30.01,North,0,0.0,0.0,18,0.00,,,0.00,WUHU216HW,2013-10-22 19:14:00,
2013-10-22 12:16:00,74.7,26.1,30.01,North,0,0.0,0.0,17,0.00,,,0.00,WUHU216HW,2013-10-22 19:16:00,
2013-10-22 12:17:00,74.7,26.1,30.01,North,0,0.0,0.0,17,0.00,,,0.00,WUHU216HW,2013-10-22 19:17:00,
2013-10-22 12:19:00,74.9,26.3,30.01,North,0,0.0,0.0,17,0.00,,,0.00,WUHU216HW,2013-10-22 19:19:00,
2013-10-22 12:20:00,74.9,26.3,30.01,North,0,0.0,0.0,17,0.00,,,0.00,WUHU216HW,2013-10-22 19:20:00,
2013-10-22 12:21:00,74.9,26.3,30.01,North,0,0.0,0.0,17,0.00,,,0.00,WUHU216HW,2013-10-22 19:21:00,
2013-10-22 12:22:00,74.9,26.3,30.01,North,0,0.0,0.0,17,0.00,,,0.00,WUHU216HW,2013-10-22 19:22:00,
2013-10-22 12:23:00,74.9,26.3,30.01,North,0,0.0,0.0,17,0.00,,,0.00,WUHU216HW,2013-10-22 19:23:00,
2013-10-22 12:25:00,74.9,26.3,30.01,North,0,0.0,0.0,17,0.00,,,0.00,WUHU216HW,2013-10-22 19:25:00,
2013-10-22 12:26:00,75.1,26.4,30.01,North,0,0.0,0.0,17,0.00,,,0.00,WUHU216HW,2013-10-22 19:26:00,
2013-10-22 12:27:00,75.1,26.4,30.00,North,0,0.0,0.0,17,0.00,,,0.00,WUHU216HW,2013-10-22 19:27:00,
2013-10-22 12:28:00,75.1,26.4,30.00,North,0,0.0,0.0,17,0.00,,,0.00,WUHU216HW,2013-10-22 19:28:00,
2013-10-22 12:30:00,75.2,24.8,30.01,North,0,0.0,0.0,16,0.00,,,0.00,WUHU216HW,2013-10-22 19:30:00,
2013-10-22 12:31:00,75.2,26.6,30.01,North,0,0.0,0.0,17,0.00,,,0.00,WUHU216HW,2013-10-22 19:31:00,
2013-10-22 12:32:00,75.2,26.6,30.01,North,0,0.0,0.0,17,0.00,,,0.00,WUHU216HW,2013-10-22 19:32:00,
2013-10-22 12:33:00,75.2,26.6,30.01,North,0,0.0,0.0,17,0.00,,,0.00,WUHU216HW,2013-10-22 19:33:00,
2013-10-22 12:36:00,75.4,25.0,30.00,North,0,0.0,0.0,16,0.00,,,0.00,WUHU216HW,2013-10-22 19:36:00,
2013-10-22 12:37:00,75.6,25.2,30.00,North,0,0.0,0.0,16,0.00,,,0.00,WUHU216HW,2013-10-22 19:37:00,
2013-10-22 12:38:00,75.6,25.2,30.00,North,0,0.0,0.0,16,0.00,,,0.00,WUHU216HW,2013-10-22 19:38:00,
2013-10-22 12:39:00,75.6,25.2,30.00,North,0,0.0,0.0,16,0.00,,,0.00,WUHU216HW,2013-10-22 19:39:00,
2013-10-22 12:41:00,75.6,25.2,30.00,North,0,0.0,0.0,16,0.00,,,0.00,WUHU216HW,2013-10-22 19:41:00,
2013-10-22 12:43:00,75.6,25.2,30.00,North,0,0.0,0.0,16,0.00,,,0.00,WUHU216HW,2013-10-22 19:43:00,
2013-10-22 12:44:00,75.6,25.2,30.00,North,0,0.0,0.0,16,0.00,,,0.00,WUHU216HW,2013-10-22 19:44:00,
2013-10-22 12:47:00,75.8,25.3,29.99,North,0,0.0,0.0,16,0.00,,,0.00,WUHU216HW,2013-10-22 19:47:00,
2013-10-22 12:48:00,75.8,23.7,30.00,North,0,0.0,0.0,15,0.00,,,0.00,WUHU216HW,2013-10-22 19:48:00,
2013-10-22 12:49:00,75.8,23.7,30.00,North,0,0.0,0.0,15,0.00,,,0.00,WUHU216HW,2013-10-22 19:49:00,
2013-10-22 12:52:00,75.8,25.3,29.99,North,0,0.0,0.0,16,0.00,,,0.00,WUHU216HW,2013-10-22 19:52:00,
2013-10-22 12:53:00,75.8,25.3,29.99,North,0,0.0,0.0,16,0.00,,,0.00,WUHU216HW,2013-10-22 19:53:00,
2013-10-22 12:54:00,75.8,25.3,29.99,North,0,0.0,0.0,16,0.00,,,0.00,WUHU216HW,2013-10-22 19:54:00,
2013-10-22 12:58:00,76.0,25.5,29.99,North,0,0.0,0.0,16,0.00,,,0.00,WUHU216HW,2013-10-22 19:58:00,
2013-10-22 12:59:00,76.0,23.8,29.99,North,0,0.0,0.0,15,0.00,,,0.00,WUHU216HW,2013-10-22 19:59:00,
2013-10-22 13:00:00,76.0,23.8,29.99,North,0,0.0,0.0,15,0.00,,,0.00,WUHU216HW,2013-10-22 20:00:00,
2013-10-22 13:03:00,76.0,25.5,29.99,North,0,0.0,0.0,16,0.00,,,0.00,WUHU216HW,2013-10-22 20:03:00,
2013-10-22 13:04:00,76.0,23.8,29.99,North,0,0.0,0.0,15,0.00,,,0.00,WUHU216HW,2013-10-22 20:04:00,
2013-10-22 13:05:00,76.0,23.8,29.99,North,0,0.0,0.0,15,0.00,,,0.00,WUHU216HW,2013-10-22 20:05:00,
2013-10-22 13:09:00,76.0,23.8,29.99,North,0,0.0,0.0,15,0.00,,,0.00,WUHU216HW,2013-10-22 20:09:00,
2013-10-22 13:10:00,76.0,23.8,29.99,North,0,0.0,0.0,15,0.00,,,0.00,WUHU216HW,2013-10-22 20:10:00,
2013-10-22 13:14:00,76.0,23.8,29.98,North,0,0.0,0.0,15,0.00,,,0.00,WUHU216HW,2013-10-22 20:14:00,
2013-10-22 13:15:00,76.0,23.8,29.99,North,0,0.0,0.0,15,0.00,,,0.00,WUHU216HW,2013-10-22 20:15:00,
2013-10-22 13:16:00,76.0,23.8,29.98,North,0,0.0,0.0,15,0.00,,,0.00,WUHU216HW,2013-10-22 20:16:00,
2013-10-22 13:17:00,76.0,23.8,29.98,North,0,0.0,0.0,15,0.00,,,0.00,WUHU216HW,2013-10-22 20:17:00,
2013-10-22 13:19:00,76.1,22.3,29.98,North,0,0.0,0.0,14,0.00,,,0.00,WUHU216HW,2013-10-22 20:19:00,
2013-10-22 13:20:00,76.1,23.9,29.98,North,0,0.0,0.0,15,0.00,,,0.00,WUHU216HW,2013-10-22 20:20:00,
2013-10-22 13:21:00,76.0,23.8,29.98,North,0,0.0,0.0,15,0.00,,,0.00,WUHU216HW,2013-10-22 20:21:00,
2013-10-22 13:22:00,76.0,23.8,29.98,North,0,0.0,0.0,15,0.00,,,0.00,WUHU216HW,2013-10-22 20:22:00,
2013-10-22 13:23:00,76.1,23.9,29.98,North,0,0.0,0.0,15,0.00,,,0.00,WUHU216HW,2013-10-22 20:23:00,
2013-10-22 13:24:00,76.1,23.9,29.98,North,0,0.0,0.0,15,0.00,,,0.00,WUHU216HW,2013-10-22 20:24:00,
2013-10-22 13:25:00,76.3,24.1,29.98,North,0,0.0,0.0,15,0.00,,,0.00,WUHU216HW,2013-10-22 20:25:00,
2013-10-22 13:26:00,76.3,24.1,29.98,North,0,0.0,0.0,15,0.00,,,0.00,WUHU216HW,2013-10-22 20:26:00,
2013-10-22 13:27:00,76.3,24.1,29.98,North,0,0.0,0.0,15,0.00,,,0.00,WUHU216HW,2013-10-22 20:27:00,
2013-10-22 13:28:00,76.3,24.1,29.98,North,0,0.0,0.0,15,0.00,,,0.00,WUHU216HW,2013-10-22 20:28:00,
2013-10-22 13:29:00,76.3,24.1,29.98,North,0,0.0,0.0,15,0.00,,,0.00,WUHU216HW,2013-10-22 20:29:00,
2013-10-22 13:31:00,76.5,24.2,29.98,North,0,0.0,0.0,15,0.00,,,0.00,WUHU216HW,2013-10-22 20:31:00,
2013-10-22 13:32:00,76.5,24.2,29.97,North,0,0.0,0.0,15,0.00,,,0.00,WUHU216HW,2013-10-22 20:32:00,
2013-10-22 13:33:00,76.5,24.2,29.98,North,0,0.0,0.0,15,0.00,,,0.00,WUHU216HW,2013-10-22 20:33:00,
2013-10-22 13:34:00,76.5,20.9,29.97,North,0,0.0,0.0,13,0.00,,,0.00,WUHU216HW,2013-10-22 20:34:00,
2013-10-22 13:37:00,76.5,19.3,29.97,North,0,0.0,0.0,12,0.00,,,0.00,WUHU216HW,2013-10-22 20:37:00,
2013-10-22 13:38:00,76.5,20.9,29.97,North,0,0.0,0.0,13,0.00,,,0.00,WUHU216HW,2013-10-22 20:38:00,
2013-10-22 13:40:00,76.5,20.9,29.97,North,0,0.0,0.0,13,0.00,,,0.00,WUHU216HW,2013-10-22 20:40:00,
2013-10-22 13:42:00,76.5,20.9,29.97,North,0,0.0,0.0,13,0.00,,,0.00,WUHU216HW,2013-10-22 20:42:00,
2013-10-22 13:43:00,76.5,20.9,29.97,North,0,0.0,0.0,13,0.00,,,0.00,WUHU216HW,2013-10-22 20:43:00,
2013-10-22 13:44:00,76.7,21.1,29.97,North,0,0.0,0.0,13,0.00,,,0.00,WUHU216HW,2013-10-22 20:44:00,
2013-10-22 13:45:00,76.7,21.1,29.97,North,0,0.0,0.0,13,0.00,,,0.00,WUHU216HW,2013-10-22 20:45:00,
2013-10-22 13:47:00,76.7,22.7,29.97,North,0,0.0,0.0,14,0.00,,,0.00,WUHU216HW,2013-10-22 20:47:00,
2013-10-22 13:48:00,76.7,22.7,29.97,North,0,0.0,0.0,14,0.00,,,0.00,WUHU216HW,2013-10-22 20:48:00,
2013-10-22 13:49:00,76.9,22.9,29.97,North,0,0.0,0.0,14,0.00,,,0.00,WUHU216HW,2013-10-22 20:49:00,
2013-10-22 13:50:00,76.9,21.3,29.97,North,0,0.0,0.0,13,0.00,,,0.00,WUHU216HW,2013-10-22 20:50:00,
2013-10-22 13:51:00,76.9,21.3,29.97,North,0,0.0,0.0,13,0.00,,,0.00,WUHU216HW,2013-10-22 20:51:00,
2013-10-22 13:52:00,77.0,21.3,29.97,North,0,0.0,0.0,13,0.00,,,0.00,WUHU216HW,2013-10-22 20:52:00,
2013-10-22 13:53:00,77.0,21.3,29.97,North,0,0.0,0.0,13,0.00,,,0.00,WUHU216HW,2013-10-22 20:53:00,
2013-10-22 13:54:00,77.0,21.3,29.96,North,0,0.0,0.0,13,0.00,,,0.00,WUHU216HW,2013-10-22 20:54:00,
2013-10-22 13:56:00,77.0,19.7,29.96,North,0,0.0,0.0,12,0.00,,,0.00,WUHU216HW,2013-10-22 20:56:00,
2013-10-22 13:57:00,77.0,21.3,29.96,North,0,0.0,0.0,13,0.00,,,0.00,WUHU216HW,2013-10-22 20:57:00,
2013-10-22 13:58:00,77.0,21.3,29.96,North,0,0.0,0.0,13,0.00,,,0.00,WUHU216HW,2013-10-22 20:58:00,
2013-10-22 13:59:00,77.0,21.3,29.96,North,0,0.0,0.0,13,0.00,,,0.00,WUHU216HW,2013-10-22 20:59:00,
2013-10-22 14:00:00,77.0,21.3,29.96,North,0,0.0,0.0,13,0.00,,,0.00,WUHU216HW,2013-10-22 21:00:00,
2013-10-22 14:02:00,77.0,21.3,29.96,North,0,0.0,0.0,13,0.00,,,0.00,WUHU216HW,2013-10-22 21:02:00,
2013-10-22 14:03:00,77.2,21.5,29.96,North,0,0.0,0.0,13,0.00,,,0.00,WUHU216HW,2013-10-22 21:03:00,
2013-10-22 14:04:00,77.0,21.3,29.96,North,0,0.0,0.0,13,0.00,,,0.00,WUHU216HW,2013-10-22 21:04:00,
2013-10-22 14:05:00,77.2,21.5,29.96,North,0,0.0,0.0,13,0.00,,,0.00,WUHU216HW,2013-10-22 21:05:00,
2013-10-22 14:08:00,77.2,21.5,29.96,North,0,0.0,0.0,13,0.00,,,0.00,WUHU216HW,2013-10-22 21:08:00,
2013-10-22 14:09:00,77.2,21.5,29.96,North,0,0.0,0.0,13,0.00,,,0.00,WUHU216HW,2013-10-22 21:09:00,
2013-10-22 14:10:00,77.4,21.6,29.96,North,0,0.0,0.0,13,0.00,,,0.00,WUHU216HW,2013-10-22 21:10:00,
2013-10-22 14:11:00,77.4,21.6,29.96,North,0,0.0,0.0,13,0.00,,,0.00,WUHU216HW,2013-10-22 21:11:00,
2013-10-22 14:14:00,77.4,21.6,29.96,North,0,0.0,0.0,13,0.00,,,0.00,WUHU216HW,2013-10-22 21:14:00,
2013-10-22 14:15:00,77.4,21.6,29.96,North,0,0.0,0.0,13,0.00,,,0.00,WUHU216HW,2013-10-22 21:15:00,
2013-10-22 14:16:00,77.6,23.4,29.96,North,0,0.0,0.0,14,0.00,,,0.00,WUHU216HW,2013-10-22 21:16:00,
2013-10-22 14:18:00,77.6,21.8,29.96,North,0,0.0,0.0,13,0.00,,,0.00,WUHU216HW,2013-10-22 21:18:00,
2013-10-22 14:19:00,77.6,21.8,29.96,North,0,0.0,0.0,13,0.00,,,0.00,WUHU216HW,2013-10-22 21:19:00,
2013-10-22 14:21:00,77.6,21.8,29.96,North,0,0.0,0.0,13,0.00,,,0.00,WUHU216HW,2013-10-22 21:21:00,
2013-10-22 14:23:00,77.4,20.0,29.96,North,0,0.0,0.0,12,0.00,,,0.00,WUHU216HW,2013-10-22 21:23:00,
2013-10-22 14:26:00,77.4,21.6,29.96,North,0,0.0,0.0,13,0.00,,,0.00,WUHU216HW,2013-10-22 21:26:00,
2013-10-22 14:27:00,77.6,21.8,29.96,North,0,0.0,0.0,13,0.00,,,0.00,WUHU216HW,2013-10-22 21:27:00,
2013-10-22 14:29:00,77.6,21.8,29.96,North,0,0.0,0.0,13,0.00,,,0.00,WUHU216HW,2013-10-22 21:29:00,
2013-10-22 14:31:00,77.6,21.8,29.96,North,0,0.0,0.0,13,0.00,,,0.00,WUHU216HW,2013-10-22 21:31:00,
2013-10-22 14:32:00,77.6,21.8,29.96,North,0,0.0,0.0,13,0.00,,,0.00,WUHU216HW,2013-10-22 21:32:00,
2013-10-22 14:34:00,77.6,21.8,29.96,North,0,0.0,0.0,13,0.00,,,0.00,WUHU216HW,2013-10-22 21:34:00,
2013-10-22 14:36:00,77.8,21.9,29.96,North,0,0.0,0.0,13,0.00,,,0.00,WUHU216HW,2013-10-22 21:36:00,
2013-10-22 14:37:00,77.8,21.9,29.96,North,0,0.0,0.0,13,0.00,,,0.00,WUHU216HW,2013-10-22 21:37:00,
2013-10-22 14:39:00,77.8,21.9,29.96,North,0,0.0,0.0,13,0.00,,,0.00,WUHU216HW,2013-10-22 21:39:00,
2013-10-22 14:41:00,77.8,21.9,29.96,North,0,0.0,0.0,13,0.00,,,0.00,WUHU216HW,2013-10-22 21:41:00,
2013-10-22 14:42:00,77.8,21.9,29.96,North,0,0.0,0.0,13,0.00,,,0.00,WUHU216HW,2013-10-22 21:42:00,
2013-10-22 14:43:00,77.8,21.9,29.96,North,0,0.0,0.0,13,0.00,,,0.00,WUHU216HW,2013-10-22 21:43:00,
2013-10-22 14:44:00,77.9,20.3,29.95,North,0,0.0,0.0,12,0.00,,,0.00,WUHU216HW,2013-10-22 21:44:00,
2013-10-22 14:45:00,77.9,20.3,29.95,North,0,0.0,0.0,12,0.00,,,0.00,WUHU216HW,2013-10-22 21:45:00,
2013-10-22 14:46:00,77.9,22.0,29.95,North,0,0.0,0.0,13,0.00,,,0.00,WUHU216HW,2013-10-22 21:46:00,
2013-10-22 14:47:00,77.9,22.0,29.95,North,0,0.0,0.0,13,0.00,,,0.00,WUHU216HW,2013-10-22 21:47:00,
2013-10-22 14:48:00,77.9,22.0,29.95,North,0,0.0,0.0,13,0.00,,,0.00,WUHU216HW,2013-10-22 21:48:00,
2013-10-22 14:50:00,77.9,22.0,29.95,North,0,0.0,0.0,13,0.00,,,0.00,WUHU216HW,2013-10-22 21:50:00,
2013-10-22 14:52:00,77.9,22.0,29.95,North,0,0.0,0.0,13,0.00,,,0.00,WUHU216HW,2013-10-22 21:52:00,
2013-10-22 14:54:00,77.9,22.0,29.95,North,0,0.0,0.0,13,0.00,,,0.00,WUHU216HW,2013-10-22 21:54:00,
2013-10-22 14:55:00,78.1,22.2,29.95,North,0,0.0,0.0,13,0.00,,,0.00,WUHU216HW,2013-10-22 21:55:00,
2013-10-22 14:56:00,78.1,22.2,29.95,North,0,0.0,0.0,13,0.00,,,0.00,WUHU216HW,2013-10-22 21:56:00,
2013-10-22 14:57:00,78.1,22.2,29.95,North,0,0.0,0.0,13,0.00,,,0.00,WUHU216HW,2013-10-22 21:57:00,
2013-10-22 14:58:00,78.1,20.4,29.95,North,0,0.0,0.0,12,0.00,,,0.00,WUHU216HW,2013-10-22 21:58:00,
2013-10-22 14:59:00,78.1,20.4,29.95,North,0,0.0,0.0,12,0.00,,,0.00,WUHU216HW,2013-10-22 21:59:00,
2013-10-22 15:00:00,78.1,20.4,29.95,North,0,0.0,0.0,12,0.00,,,0.00,WUHU216HW,2013-10-22 22:00:00,
2013-10-22 15:01:00,77.9,20.3,29.95,North,0,0.0,0.0,12,0.00,,,0.00,WUHU216HW,2013-10-22 22:01:00,
2013-10-22 15:02:00,77.9,20.3,29.95,North,0,0.0,0.0,12,0.00,,,0.00,WUHU216HW,2013-10-22 22:02:00,
2013-10-22 15:03:00,77.9,20.3,29.95,North,0,0.0,0.0,12,0.00,,,0.00,WUHU216HW,2013-10-22 22:03:00,
2013-10-22 15:05:00,77.9,18.7,29.95,North,0,0.0,0.0,11,0.00,,,0.00,WUHU216HW,2013-10-22 22:05:00,
2013-10-22 15:06:00,77.8,20.3,29.95,North,0,0.0,0.0,12,0.00,,,0.00,WUHU216HW,2013-10-22 22:06:00,
2013-10-22 15:07:00,77.8,20.3,29.95,North,0,0.0,0.0,12,0.00,,,0.00,WUHU216HW,2013-10-22 22:07:00,
2013-10-22 15:08:00,77.9,20.3,29.95,North,0,0.0,0.0,12,0.00,,,0.00,WUHU216HW,2013-10-22 22:08:00,
2013-10-22 15:11:00,77.8,20.3,29.95,North,0,0.0,0.0,12,0.00,,,0.00,WUHU216HW,2013-10-22 22:11:00,
2013-10-22 15:12:00,77.9,20.3,29.95,North,0,0.0,0.0,12,0.00,,,0.00,WUHU216HW,2013-10-22 22:12:00,
2013-10-22 15:13:00,77.8,20.3,29.95,North,0,0.0,0.0,12,0.00,,,0.00,WUHU216HW,2013-10-22 22:13:00,
2013-10-22 15:16:00,77.9,20.3,29.95,North,0,0.0,0.0,12,0.00,,,0.00,WUHU216HW,2013-10-22 22:16:00,
2013-10-22 15:17:00,77.9,20.3,29.95,North,0,0.0,0.0,12,0.00,,,0.00,WUHU216HW,2013-10-22 22:17:00,
2013-10-22 15:18:00,77.9,20.3,29.95,North,0,0.0,0.0,12,0.00,,,0.00,WUHU216HW,2013-10-22 22:18:00,
2013-10-22 15:22:00,77.9,20.3,29.95,North,0,0.0,0.0,12,0.00,,,0.00,WUHU216HW,2013-10-22 22:22:00,
2013-10-22 15:23:00,77.9,20.3,29.95,North,0,0.0,0.0,12,0.00,,,0.00,WUHU216HW,2013-10-22 22:23:00,
2013-10-22 15:24:00,77.9,20.3,29.95,North,0,0.0,0.0,12,0.00,,,0.00,WUHU216HW,2013-10-22 22:24:00,
2013-10-22 15:26:00,77.9,20.3,29.94,North,0,0.0,0.0,12,0.00,,,0.00,WUHU216HW,2013-10-22 22:26:00,
2013-10-22 15:27:00,78.1,20.4,29.95,North,0,0.0,0.0,12,0.00,,,0.00,WUHU216HW,2013-10-22 22:27:00,
2013-10-22 15:28:00,78.1,20.4,29.95,North,0,0.0,0.0,12,0.00,,,0.00,WUHU216HW,2013-10-22 22:28:00,
2013-10-22 15:29:00,78.1,20.4,29.94,North,0,0.0,0.0,12,0.00,,,0.00,WUHU216HW,2013-10-22 22:29:00,
2013-10-22 15:30:00,78.1,20.4,29.94,North,0,0.0,0.0,12,0.00,,,0.00,WUHU216HW,2013-10-22 22:30:00,
2013-10-22 15:31:00,78.1,20.4,29.94,North,0,0.0,0.0,12,0.00,,,0.00,WUHU216HW,2013-10-22 22:31:00,
2013-10-22 15:33:00,78.1,18.8,29.94,North,0,0.0,0.0,11,0.00,,,0.00,WUHU216HW,2013-10-22 22:33:00,
2013-10-22 15:34:00,78.1,18.8,29.94,North,0,0.0,0.0,11,0.00,,,0.00,WUHU216HW,2013-10-22 22:34:00,
2013-10-22 15:36:00,78.1,20.4,29.94,North,0,0.0,0.0,12,0.00,,,0.00,WUHU216HW,2013-10-22 22:36:00,
2013-10-22 15:37:00,78.1,20.4,29.94,North,0,0.0,0.0,12,0.00,,,0.00,WUHU216HW,2013-10-22 22:37:00,
2013-10-22 15:39:00,78.1,18.8,29.94,North,0,0.0,0.0,11,0.00,,,0.00,WUHU216HW,2013-10-22 22:39:00,
2013-10-22 15:40:00,78.1,18.8,29.94,North,0,0.0,0.0,11,0.00,,,0.00,WUHU216HW,2013-10-22 22:40:00,
2013-10-22 15:41:00,78.1,18.8,29.94,North,0,0.0,0.0,11,0.00,,,0.00,WUHU216HW,2013-10-22 22:41:00,
2013-10-22 15:42:00,78.1,18.8,29.94,North,0,0.0,0.0,11,0.00,,,0.00,WUHU216HW,2013-10-22 22:42:00,
2013-10-22 15:44:00,78.1,18.8,29.94,North,0,0.0,0.0,11,0.00,,,0.00,WUHU216HW,2013-10-22 22:44:00,
2013-10-22 15:45:00,78.1,20.4,29.94,North,0,0.0,0.0,12,0.00,,,0.00,WUHU216HW,2013-10-22 22:45:00,
2013-10-22 15:47:00,78.1,20.4,29.94,North,0,0.0,0.0,12,0.00,,,0.00,WUHU216HW,2013-10-22 22:47:00,
2013-10-22 15:48:00,78.1,20.4,29.94,North,0,0.0,0.0,12,0.00,,,0.00,WUHU216HW,2013-10-22 22:48:00,
2013-10-22 15:49:00,78.1,18.8,29.94,North,0,0.0,0.0,11,0.00,,,0.00,WUHU216HW,2013-10-22 22:49:00,
2013-10-22 15:50:00,78.1,18.8,29.94,North,0,0.0,0.0,11,0.00,,,0.00,WUHU216HW,2013-10-22 22:50:00,
2013-10-22 15:51:00,77.9,18.7,29.94,North,0,0.0,0.0,11,0.00,,,0.00,WUHU216HW,2013-10-22 22:51:00,
2013-10-22 15:52:00,77.9,20.3,29.94,North,0,0.0,0.0,12,0.00,,,0.00,WUHU216HW,2013-10-22 22:52:00,
2013-10-22 15:53:00,77.9,20.3,29.94,North,0,0.0,0.0,12,0.00,,,0.00,WUHU216HW,2013-10-22 22:53:00,
2013-10-22 15:54:00,77.9,20.3,29.94,North,0,0.0,0.0,12,0.00,,,0.00,WUHU216HW,2013-10-22 22:54:00,
2013-10-22 15:55:00,77.9,20.3,29.94,North,0,0.0,0.0,12,0.00,,,0.00,WUHU216HW,2013-10-22 22:55:00,
2013-10-22 15:56:00,77.9,20.3,29.94,North,0,0.0,0.0,12,0.00,,,0.00,WUHU216HW,2013-10-22 22:56:00,
2013-10-22 15:57:00,77.8,20.3,29.94,North,0,0.0,0.0,12,0.00,,,0.00,WUHU216HW,2013-10-22 22:57:00,
2013-10-22 15:58:00,77.9,20.3,29.94,North,0,0.0,0.0,12,0.00,,,0.00,WUHU216HW,2013-10-22 22:58:00,
2013-10-22 16:00:00,77.9,20.3,29.94,North,0,0.0,0.0,12,0.00,,,0.00,WUHU216HW,2013-10-22 23:00:00,
2013-10-22 16:01:00,77.8,20.3,29.94,North,0,0.0,0.0,12,0.00,,,0.00,WUHU216HW,2013-10-22 23:01:00,
2013-10-22 16:03:00,77.9,20.3,29.94,North,0,0.0,0.0,12,0.00,,,0.00,WUHU216HW,2013-10-22 23:03:00,
2013-10-22 16:04:00,77.9,20.3,29.94,North,0,0.0,0.0,12,0.00,,,0.00,WUHU216HW,2013-10-22 23:04:00,
2013-10-22 16:05:00,77.9,22.0,29.94,North,0,0.0,0.0,13,0.00,,,0.00,WUHU216HW,2013-10-22 23:05:00,
2013-10-22 16:06:00,77.9,22.0,29.94,North,0,0.0,0.0,13,0.00,,,0.00,WUHU216HW,2013-10-22 23:06:00,
2013-10-22 16:08:00,77.9,22.0,29.94,North,0,0.0,0.0,13,0.00,,,0.00,WUHU216HW,2013-10-22 23:08:00,
2013-10-22 16:09:00,77.9,22.0,29.94,North,0,0.0,0.0,13,0.00,,,0.00,WUHU216HW,2013-10-22 23:09:00,
2013-10-22 16:11:00,77.9,22.0,29.94,North,0,0.0,0.0,13,0.00,,,0.00,WUHU216HW,2013-10-22 23:11:00,
2013-10-22 16:12:00,77.9,22.0,29.94,North,0,0.0,0.0,13,0.00,,,0.00,WUHU216HW,2013-10-22 23:12:00,
2013-10-22 16:13:00,77.9,22.0,29.94,North,0,0.0,0.0,13,0.00,,,0.00,WUHU216HW,2013-10-22 23:13:00,
2013-10-22 16:15:00,77.8,21.9,29.94,North,0,0.0,0.0,13,0.00,,,0.00,WUHU216HW,2013-10-22 23:15:00,
2013-10-22 16:16:00,77.8,21.9,29.94,North,0,0.0,0.0,13,0.00,,,0.00,WUHU216HW,2013-10-22 23:16:00,
2013-10-22 16:17:00,77.8,21.9,29.94,North,0,0.0,0.0,13,0.00,,,0.00,WUHU216HW,2013-10-22 23:17:00,
2013-10-22 16:18:00,77.8,21.9,29.94,North,0,0.0,0.0,13,0.00,,,0.00,WUHU216HW,2013-10-22 23:18:00,
2013-10-22 16:20:00,77.8,21.9,29.94,North,0,0.0,0.0,13,0.00,,,0.00,WUHU216HW,2013-10-22 23:20:00,
2013-10-22 16:22:00,77.8,21.9,29.94,North,0,0.0,0.0,13,0.00,,,0.00,WUHU216HW,2013-10-22 23:22:00,
2013-10-22 16:23:00,77.8,21.9,29.94,North,0,0.0,0.0,13,0.00,,,0.00,WUHU216HW,2013-10-22 23:23:00,
2013-10-22 16:24:00,77.8,21.9,29.94,North,0,0.0,0.0,13,0.00,,,0.00,WUHU216HW,2013-10-22 23:24:00,
2013-10-22 16:26:00,77.8,21.9,29.94,North,0,0.0,0.0,13,0.00,,,0.00,WUHU216HW,2013-10-22 23:26:00,
2013-10-22 16:27:00,77.8,21.9,29.94,North,0,0.0,0.0,13,0.00,,,0.00,WUHU216HW,2013-10-22 23:27:00,
2013-10-22 16:28:00,77.6,21.8,29.94,North,0,0.0,0.0,13,0.00,,,0.00,WUHU216HW,2013-10-22 23:28:00,
2013-10-22 16:29:00,77.8,21.9,29.94,North,0,0.0,0.0,13,0.00,,,0.00,WUHU216HW,2013-10-22 23:29:00,
2013-10-22 16:31:00,77.6,21.8,29.94,North,0,0.0,0.0,13,0.00,,,0.00,WUHU216HW,2013-10-22 23:31:00,
2013-10-22 16:33:00,77.6,21.8,29.94,North,0,0.0,0.0,13,0.00,,,0.00,WUHU216HW,2013-10-22 23:33:00,
2013-10-22 16:34:00,77.6,21.8,29.94,North,0,0.0,0.0,13,0.00,,,0.00,WUHU216HW,2013-10-22 23:34:00,
2013-10-22 16:35:00,77.6,21.8,29.94,North,0,0.0,0.0,13,0.00,,,0.00,WUHU216HW,2013-10-22 23:35:00,
2013-10-22 16:36:00,77.6,21.8,29.94,North,0,0.0,0.0,13,0.00,,,0.00,WUHU216HW,2013-10-22 23:36:00,
2013-10-22 16:38:00,77.4,23.3,29.94,North,0,0.0,0.0,14,0.00,,,0.00,WUHU216HW,2013-10-22 23:38:00,
2013-10-22 16:39:00,77.4,23.3,29.94,North,0,0.0,0.0,14,0.00,,,0.00,WUHU216HW,2013-10-22 23:39:00,
2013-10-22 16:40:00,77.4,23.3,29.94,North,0,0.0,0.0,14,0.00,,,0.00,WUHU216HW,2013-10-22 23:40:00,
2013-10-22 16:41:00,77.4,21.6,29.94,North,0,0.0,0.0,13,0.00,,,0.00,WUHU216HW,2013-10-22 23:41:00,
2013-10-22 16:42:00,77.4,21.6,29.94,North,0,0.0,0.0,13,0.00,,,0.00,WUHU216HW,2013-10-22 23:42:00,
2013-10-22 16:43:00,77.2,23.1,29.94,North,0,0.0,0.0,14,0.00,,,0.00,WUHU216HW,2013-10-22 23:43:00,
2013-10-22 16:45:00,77.2,21.5,29.94,North,0,0.0,0.0,13,0.00,,,0.00,WUHU216HW,2013-10-22 23:45:00,
2013-10-22 16:46:00,77.2,21.5,29.94,North,0,0.0,0.0,13,0.00,,,0.00,WUHU216HW,2013-10-22 23:46:00,
2013-10-22 16:47:00,77.2,21.5,29.94,North,0,0.0,0.0,13,0.00,,,0.00,WUHU216HW,2013-10-22 23:47:00,
2013-10-22 16:48:00,77.2,21.5,29.94,North,0,0.0,0.0,13,0.00,,,0.00,WUHU216HW,2013-10-22 23:48:00,
2013-10-22 16:50:00,77.0,21.3,29.94,North,0,0.0,0.0,13,0.00,,,0.00,WUHU216HW,2013-10-22 23:50:00,
2013-10-22 16:51:00,77.0,21.3,29.94,North,0,0.0,0.0,13,0.00,,,0.00,WUHU216HW,2013-10-22 23:51:00,
2013-10-22 16:52:00,77.0,23.1,29.94,North,0,0.0,0.0,14,0.00,,,0.00,WUHU216HW,2013-10-22 23:52:00,
2013-10-22 16:53:00,77.0,21.3,29.94,North,0,0.0,0.0,13,0.00,,,0.00,WUHU216HW,2013-10-22 23:53:00,
2013-10-22 16:56:00,77.0,21.3,29.94,North,0,0.0,0.0,13,0.00,,,0.00,WUHU216HW,2013-10-22 23:56:00,
2013-10-22 16:57:00,77.0,21.3,29.94,North,0,0.0,0.0,13,0.00,,,0.00,WUHU216HW,2013-10-22 23:57:00,
2013-10-22 16:58:00,77.0,21.3,29.94,North,0,0.0,0.0,13,0.00,,,0.00,WUHU216HW,2013-10-22 23:58:00,
2013-10-22 16:59:00,77.0,21.3,29.94,North,0,0.0,0.0,13,0.00,,,0.00,WUHU216HW,2013-10-22 23:59:00,
2013-10-22 17:01:00,77.0,21.3,29.94,North,0,0.0,0.0,13,0.00,,,0.00,WUHU216HW,2013-10-23 00:01:00,
2013-10-22 17:02:00,77.0,21.3,29.94,North,0,0.0,0.0,13,0.00,,,0.00,WUHU216HW,2013-10-23 00:02:00,
2013-10-22 17:03:00,77.0,23.1,29.94,North,0,0.0,0.0,14,0.00,,,0.00,WUHU216HW,2013-10-23 00:03:00,
2013-10-22 17:04:00,76.9,22.9,29.94,North,0,0.0,0.0,14,0.00,,,0.00,WUHU216HW,2013-10-23 00:04:00,
2013-10-22 17:07:00,76.9,24.5,29.94,North,0,0.0,0.0,15,0.00,,,0.00,WUHU216HW,2013-10-23 00:07:00,
2013-10-22 17:08:00,76.9,24.5,29.94,North,0,0.0,0.0,15,0.00,,,0.00,WUHU216HW,2013-10-23 00:08:00,
2013-10-22 17:09:00,76.7,24.4,29.94,North,0,0.0,0.0,15,0.00,,,0.00,WUHU216HW,2013-10-23 00:09:00,
2013-10-22 17:12:00,76.3,24.1,29.94,North,0,0.0,0.0,15,0.00,,,0.00,WUHU216HW,2013-10-23 00:12:00,
2013-10-22 17:13:00,76.1,25.6,29.94,North,0,0.0,0.0,16,0.00,,,0.00,WUHU216HW,2013-10-23 00:13:00,
2013-10-22 17:14:00,76.0,25.5,29.94,North,0,0.0,0.0,16,0.00,,,0.00,WUHU216HW,2013-10-23 00:14:00,
2013-10-22 17:15:00,75.6,25.2,29.94,North,0,0.0,0.0,16,0.00,,,0.00,WUHU216HW,2013-10-23 00:15:00,
2013-10-22 17:18:00,74.9,24.6,29.93,North,0,0.0,0.0,16,0.00,,,0.00,WUHU216HW,2013-10-23 00:18:00,
2013-10-22 17:19:00,74.9,24.6,29.93,North,0,0.0,0.0,16,0.00,,,0.00,WUHU216HW,2013-10-23 00:19:00,
2013-10-22 17:20:00,74.5,24.3,29.93,North,0,0.0,0.0,16,0.00,,,0.00,WUHU216HW,2013-10-23 00:20:00,
2013-10-22 17:23:00,74.0,24.0,29.93,North,0,0.0,0.0,16,0.00,,,0.00,WUHU216HW,2013-10-23 00:23:00,
2013-10-22 17:24:00,73.8,23.8,29.93,North,0,0.0,0.0,16,0.00,,,0.00,WUHU216HW,2013-10-23 00:24:00,
2013-10-22 17:25:00,73.8,25.4,29.93,North,0,0.0,0.0,17,0.00,,,0.00,WUHU216HW,2013-10-23 00:25:00,
2013-10-22 17:26:00,73.8,25.4,29.93,North,0,0.0,0.0,17,0.00,,,0.00,WUHU216HW,2013-10-23 00:26:00,
2013-10-22 17:29:00,73.1,24.9,29.93,North,0,0.0,0.0,17,0.00,,,0.00,WUHU216HW,2013-10-23 00:29:00,
2013-10-22 17:31:00,73.1,24.9,29.93,North,0,0.0,0.0,17,0.00,,,0.00,WUHU216HW,2013-10-23 00:31:00,
2013-10-22 17:35:00,72.5,24.4,29.94,North,0,0.0,0.0,17,0.00,,,0.00,WUHU216HW,2013-10-23 00:35:00,
2013-10-22 17:36:00,72.4,25.8,29.94,North,0,0.0,0.0,18,0.00,,,0.00,WUHU216HW,2013-10-23 00:36:00,
2013-10-22 17:37:00,72.4,25.8,29.94,North,0,0.0,0.0,18,0.00,,,0.00,WUHU216HW,2013-10-23 00:37:00,
2013-10-22 17:38:00,72.2,24.0,29.94,North,0,0.0,0.0,17,0.00,,,0.00,WUHU216HW,2013-10-23 00:38:00,
2013-10-22 17:40:00,71.8,25.4,29.94,North,0,0.0,0.0,18,0.00,,,0.00,WUHU216HW,2013-10-23 00:40:00,
2013-10-22 17:42:00,71.6,25.2,29.93,North,0,0.0,0.0,18,0.00,,,0.00,WUHU216HW,2013-10-23 00:42:00,
2013-10-22 17:43:00,71.6,25.2,29.94,North,0,0.0,0.0,18,0.00,,,0.00,WUHU216HW,2013-10-23 00:43:00,
2013-10-22 17:45:00,71.3,24.9,29.93,North,0,0.0,0.0,18,0.00,,,0.00,WUHU216HW,2013-10-23 00:45:00,
2013-10-22 17:46:00,71.3,24.9,29.93,North,0,0.0,0.0,18,0.00,,,0.00,WUHU216HW,2013-10-23 00:46:00,
2013-10-22 17:48:00,71.1,24.8,29.93,North,0,0.0,0.0,18,0.00,,,0.00,WUHU216HW,2013-10-23 00:48:00,
2013-10-22 17:49:00,70.9,24.7,29.93,North,0,0.0,0.0,18,0.00,,,0.00,WUHU216HW,2013-10-23 00:49:00,
2013-10-22 17:50:00,70.7,24.5,29.93,North,0,0.0,0.0,18,0.00,,,0.00,WUHU216HW,2013-10-23 00:50:00,
2013-10-22 17:51:00,70.7,24.5,29.94,North,0,0.0,0.0,18,0.00,,,0.00,WUHU216HW,2013-10-23 00:51:00,
2013-10-22 17:53:00,70.6,24.3,29.93,North,0,0.0,0.0,18,0.00,,,0.00,WUHU216HW,2013-10-23 00:53:00,
2013-10-22 17:54:00,70.6,24.3,29.93,North,0,0.0,0.0,18,0.00,,,0.00,WUHU216HW,2013-10-23 00:54:00,
2013-10-22 17:55:00,70.4,24.2,29.94,North,0,0.0,0.0,18,0.00,,,0.00,WUHU216HW,2013-10-23 00:55:00,
2013-10-22 17:57:00,70.2,24.0,29.93,North,0,0.0,0.0,18,0.00,,,0.00,WUHU216HW,2013-10-23 00:57:00,
2013-10-22 17:58:00,70.2,24.0,29.93,North,0,0.0,0.0,18,0.00,,,0.00,WUHU216HW,2013-10-23 00:58:00,
2013-10-22 17:59:00,70.2,24.0,29.93,North,0,0.0,0.0,18,0.00,,,0.00,WUHU216HW,2013-10-23 00:59:00,
2013-10-22 18:00:00,70.0,24.0,29.93,North,0,0.0,0.0,18,0.00,,,0.00,WUHU216HW,2013-10-23 01:00:00,
2013-10-22 18:01:00,70.0,24.0,29.93,North,0,0.0,0.0,18,0.00,,,0.00,WUHU216HW,2013-10-23 01:01:00,
2013-10-22 18:03:00,69.8,23.8,29.94,North,0,0.0,0.0,18,0.00,,,0.00,WUHU216HW,2013-10-23 01:03:00,
2013-10-22 18:04:00,69.8,23.8,29.93,North,0,0.0,0.0,18,0.00,,,0.00,WUHU216HW,2013-10-23 01:04:00,
2013-10-22 18:05:00,69.7,23.6,29.94,North,0,0.0,0.0,18,0.00,,,0.00,WUHU216HW,2013-10-23 01:05:00,
2013-10-22 18:06:00,69.7,23.6,29.94,North,0,0.0,0.0,18,0.00,,,0.00,WUHU216HW,2013-10-23 01:06:00,
2013-10-22 18:08:00,69.5,23.5,29.94,North,0,0.0,0.0,18,0.00,,,0.00,WUHU216HW,2013-10-23 01:08:00,
2013-10-22 18:09:00,69.5,23.5,29.94,North,0,0.0,0.0,18,0.00,,,0.00,WUHU216HW,2013-10-23 01:09:00,
2013-10-22 18:10:00,69.5,23.5,29.94,North,0,0.0,0.0,18,0.00,,,0.00,WUHU216HW,2013-10-23 01:10:00,
2013-10-22 18:11:00,69.5,25.1,29.94,North,0,0.0,0.0,19,0.00,,,0.00,WUHU216HW,2013-10-23 01:11:00,
2013-10-22 18:12:00,69.5,25.1,29.94,North,0,0.0,0.0,19,0.00,,,0.00,WUHU216HW,2013-10-23 01:12:00,
2013-10-22 18:13:00,69.5,23.5,29.94,North,0,0.0,0.0,18,0.00,,,0.00,WUHU216HW,2013-10-23 01:13:00,
2013-10-22 18:15:00,69.5,23.5,29.94,North,0,0.0,0.0,18,0.00,,,0.00,WUHU216HW,2013-10-23 01:15:00,
2013-10-22 18:17:00,69.3,23.3,29.94,North,0,0.0,0.0,18,0.00,,,0.00,WUHU216HW,2013-10-23 01:17:00,
2013-10-22 18:19:00,69.3,23.3,29.94,North,0,0.0,0.0,18,0.00,,,0.00,WUHU216HW,2013-10-23 01:19:00,
2013-10-22 18:20:00,69.1,23.2,29.94,North,0,0.0,0.0,18,0.00,,,0.00,WUHU216HW,2013-10-23 01:20:00,
2013-10-22 18:21:00,69.1,23.2,29.94,North,0,0.0,0.0,18,0.00,,,0.00,WUHU216HW,2013-10-23 01:21:00,
2013-10-22 18:22:00,69.1,23.2,29.94,North,0,0.0,0.0,18,0.00,,,0.00,WUHU216HW,2013-10-23 01:22:00,
2013-10-22 18:24:00,68.9,23.0,29.94,North,0,0.0,0.0,18,0.00,,,0.00,WUHU216HW,2013-10-23 01:24:00,
2013-10-22 18:26:00,68.9,23.0,29.94,North,0,0.0,0.0,18,0.00,,,0.00,WUHU216HW,2013-10-23 01:26:00,
2013-10-22 18:27:00,68.8,23.0,29.94,North,0,0.0,0.0,18,0.00,,,0.00,WUHU216HW,2013-10-23 01:27:00,
2013-10-22 18:28:00,68.8,23.0,29.94,North,0,0.0,0.0,18,0.00,,,0.00,WUHU216HW,2013-10-23 01:28:00,
2013-10-22 18:29:00,68.8,23.0,29.94,North,0,0.0,0.0,18,0.00,,,0.00,WUHU216HW,2013-10-23 01:29:00,
2013-10-22 18:30:00,68.6,22.8,29.94,North,0,0.0,0.0,18,0.00,,,0.00,WUHU216HW,2013-10-23 01:30:00,
2013-10-22 18:31:00,68.6,22.8,29.94,North,0,0.0,0.0,18,0.00,,,0.00,WUHU216HW,2013-10-23 01:31:00,
2013-10-22 18:32:00,68.6,22.8,29.94,North,0,0.0,0.0,18,0.00,,,0.00,WUHU216HW,2013-10-23 01:32:00,
2013-10-22 18:33:00,68.6,22.8,29.94,North,0,0.0,0.0,18,0.00,,,0.00,WUHU216HW,2013-10-23 01:33:00,
2013-10-22 18:34:00,68.6,22.8,29.94,North,0,0.0,0.0,18,0.00,,,0.00,WUHU216HW,2013-10-23 01:34:00,
2013-10-22 18:35:00,68.6,22.8,29.94,North,0,0.0,0.0,18,0.00,,,0.00,WUHU216HW,2013-10-23 01:35:00,
2013-10-22 18:36:00,68.6,22.8,29.94,North,0,0.0,0.0,18,0.00,,,0.00,WUHU216HW,2013-10-23 01:36:00,
2013-10-22 18:38:00,68.6,22.8,29.94,North,0,0.0,0.0,18,0.00,,,0.00,WUHU216HW,2013-10-23 01:38:00,
2013-10-22 18:39:00,68.6,22.8,29.95,North,0,0.0,0.0,18,0.00,,,0.00,WUHU216HW,2013-10-23 01:39:00,
2013-10-22 18:40:00,68.6,22.8,29.95,North,0,0.0,0.0,18,0.00,,,0.00,WUHU216HW,2013-10-23 01:40:00,
2013-10-22 18:41:00,68.6,22.8,29.95,North,0,0.0,0.0,18,0.00,,,0.00,WUHU216HW,2013-10-23 01:41:00,
2013-10-22 18:43:00,68.4,22.7,29.95,North,0,0.0,0.0,18,0.00,,,0.00,WUHU216HW,2013-10-23 01:43:00,
2013-10-22 18:44:00,68.4,22.7,29.95,North,0,0.0,0.0,18,0.00,,,0.00,WUHU216HW,2013-10-23 01:44:00,
2013-10-22 18:45:00,68.4,22.7,29.95,North,0,0.0,0.0,18,0.00,,,0.00,WUHU216HW,2013-10-23 01:45:00,
2013-10-22 18:46:00,68.4,22.7,29.95,North,0,0.0,0.0,18,0.00,,,0.00,WUHU216HW,2013-10-23 01:46:00,
2013-10-22 18:48:00,67.7,22.1,29.95,North,0,0.0,0.0,18,0.00,,,0.00,WUHU216HW,2013-10-23 01:48:00,
2013-10-22 18:49:00,67.3,21.7,29.95,North,0,0.0,0.0,18,0.00,,,0.00,WUHU216HW,2013-10-23 01:49:00,
2013-10-22 18:50:00,67.0,21.4,29.95,North,0,0.0,0.0,18,0.00,,,0.00,WUHU216HW,2013-10-23 01:50:00,
2013-10-22 18:51:00,67.0,21.4,29.95,North,0,0.0,0.0,18,0.00,,,0.00,WUHU216HW,2013-10-23 01:51:00,
2013-10-22 18:54:00,66.4,22.5,29.95,North,0,0.0,0.0,19,0.00,,,0.00,WUHU216HW,2013-10-23 01:54:00,
2013-10-22 18:55:00,66.2,22.3,29.95,North,0,0.0,0.0,19,0.00,,,0.00,WUHU216HW,2013-10-23 01:55:00,
2013-10-22 18:56:00,66.1,22.2,29.95,North,0,0.0,0.0,19,0.00,,,0.00,WUHU216HW,2013-10-23 01:56:00,
2013-10-22 18:58:00,66.1,22.2,29.95,North,0,0.0,0.0,19,0.00,,,0.00,WUHU216HW,2013-10-23 01:58:00,
2013-10-22 18:59:00,66.1,22.2,29.95,North,0,0.0,0.0,19,0.00,,,0.00,WUHU216HW,2013-10-23 01:59:00,
2013-10-22 19:00:00,66.1,22.2,29.95,North,0,0.0,0.0,19,0.00,,,0.00,WUHU216HW,2013-10-23 02:00:00,
2013-10-22 19:01:00,66.1,22.2,29.95,North,0,0.0,0.0,19,0.00,,,0.00,WUHU216HW,2013-10-23 02:01:00,
2013-10-22 19:03:00,66.1,22.2,29.95,North,0,0.0,0.0,19,0.00,,,0.00,WUHU216HW,2013-10-23 02:03:00,
2013-10-22 19:04:00,66.1,22.2,29.95,North,0,0.0,0.0,19,0.00,,,0.00,WUHU216HW,2013-10-23 02:04:00,
2013-10-22 19:06:00,66.1,22.2,29.95,North,0,0.0,0.0,19,0.00,,,0.00,WUHU216HW,2013-10-23 02:06:00,
2013-10-22 19:07:00,66.1,22.2,29.95,North,0,0.0,0.0,19,0.00,,,0.00,WUHU216HW,2013-10-23 02:07:00,
2013-10-22 19:08:00,66.1,22.2,29.95,North,0,0.0,0.0,19,0.00,,,0.00,WUHU216HW,2013-10-23 02:08:00,
2013-10-22 19:10:00,66.1,22.2,29.95,North,0,0.0,0.0,19,0.00,,,0.00,WUHU216HW,2013-10-23 02:10:00,
2013-10-22 19:11:00,66.2,22.3,29.95,North,0,0.0,0.0,19,0.00,,,0.00,WUHU216HW,2013-10-23 02:11:00,
2013-10-22 19:12:00,66.2,22.3,29.95,North,0,0.0,0.0,19,0.00,,,0.00,WUHU216HW,2013-10-23 02:12:00,
2013-10-22 19:13:00,66.1,22.2,29.95,North,0,0.0,0.0,19,0.00,,,0.00,WUHU216HW,2013-10-23 02:13:00,
2013-10-22 19:16:00,66.1,22.2,29.95,North,0,0.0,0.0,19,0.00,,,0.00,WUHU216HW,2013-10-23 02:16:00,
2013-10-22 19:17:00,66.1,22.2,29.95,North,0,0.0,0.0,19,0.00,,,0.00,WUHU216HW,2013-10-23 02:17:00,
2013-10-22 19:18:00,66.1,22.2,29.95,North,0,0.0,0.0,19,0.00,,,0.00,WUHU216HW,2013-10-23 02:18:00,
2013-10-22 19:19:00,65.9,22.1,29.95,North,0,0.0,0.0,19,0.00,,,0.00,WUHU216HW,2013-10-23 02:19:00,
2013-10-22 19:21:00,65.9,22.1,29.95,North,0,0.0,0.0,19,0.00,,,0.00,WUHU216HW,2013-10-23 02:21:00,
2013-10-22 19:22:00,65.9,22.1,29.95,North,0,0.0,0.0,19,0.00,,,0.00,WUHU216HW,2013-10-23 02:22:00,
2013-10-22 19:23:00,65.7,22.0,29.95,North,0,0.0,0.0,19,0.00,,,0.00,WUHU216HW,2013-10-23 02:23:00,
2013-10-22 19:25:00,65.7,22.0,29.95,North,0,0.0,0.0,19,0.00,,,0.00,WUHU216HW,2013-10-23 02:25:00,
2013-10-22 19:27:00,65.7,22.0,29.95,North,0,0.0,0.0,19,0.00,,,0.00,WUHU216HW,2013-10-23 02:27:00,
2013-10-22 19:28:00,65.5,21.8,29.95,North,0,0.0,0.0,19,0.00,,,0.00,WUHU216HW,2013-10-23 02:28:00,
2013-10-22 19:29:00,65.5,21.8,29.95,North,0,0.0,0.0,19,0.00,,,0.00,WUHU216HW,2013-10-23 02:29:00,
2013-10-22 19:32:00,65.5,21.8,29.95,North,0,0.0,0.0,19,0.00,,,0.00,WUHU216HW,2013-10-23 02:32:00,
2013-10-22 19:33:00,65.5,21.8,29.96,North,0,0.0,0.0,19,0.00,,,0.00,WUHU216HW,2013-10-23 02:33:00,
2013-10-22 19:35:00,65.5,21.8,29.96,North,0,0.0,0.0,19,0.00,,,0.00,WUHU216HW,2013-10-23 02:35:00,
2013-10-22 19:37:00,65.3,21.6,29.96,North,0,0.0,0.0,19,0.00,,,0.00,WUHU216HW,2013-10-23 02:37:00,
2013-10-22 19:38:00,65.3,21.6,29.96,North,0,0.0,0.0,19,0.00,,,0.00,WUHU216HW,2013-10-23 02:38:00,
2013-10-22 19:39:00,65.2,21.5,29.96,North,0,0.0,0.0,19,0.00,,,0.00,WUHU216HW,2013-10-23 02:39:00,
2013-10-22 19:40:00,65.2,21.5,29.96,North,0,0.0,0.0,19,0.00,,,0.00,WUHU216HW,2013-10-23 02:40:00,
2013-10-22 19:42:00,64.8,23.8,29.96,North,0,0.0,0.0,21,0.00,,,0.00,WUHU216HW,2013-10-23 02:42:00,
2013-10-22 19:43:00,64.6,23.7,29.96,North,0,0.0,0.0,21,0.00,,,0.00,WUHU216HW,2013-10-23 02:43:00,
2013-10-22 19:44:00,64.4,23.5,29.96,North,0,0.0,0.0,21,0.00,,,0.00,WUHU216HW,2013-10-23 02:44:00,
2013-10-22 19:47:00,64.3,23.3,29.96,North,0,0.0,0.0,21,0.00,,,0.00,WUHU216HW,2013-10-23 02:47:00,
2013-10-22 19:48:00,64.3,23.3,29.96,North,0,0.0,0.0,21,0.00,,,0.00,WUHU216HW,2013-10-23 02:48:00,
2013-10-22 19:49:00,64.1,23.2,29.96,North,0,0.0,0.0,21,0.00,,,0.00,WUHU216HW,2013-10-23 02:49:00,
2013-10-22 19:53:00,63.5,23.8,29.96,North,0,0.0,0.0,22,0.00,,,0.00,WUHU216HW,2013-10-23 02:53:00,
2013-10-22 19:54:00,63.5,23.8,29.96,North,0,0.0,0.0,22,0.00,,,0.00,WUHU216HW,2013-10-23 02:54:00,
2013-10-22 19:55:00,63.5,23.8,29.96,North,0,0.0,0.0,22,0.00,,,0.00,WUHU216HW,2013-10-23 02:55:00,
2013-10-22 19:59:00,63.4,23.6,29.96,North,0,0.0,0.0,22,0.00,,,0.00,WUHU216HW,2013-10-23 02:59:00,
2013-10-22 20:00:00,63.4,23.6,29.96,North,0,0.0,0.0,22,0.00,,,0.00,WUHU216HW,2013-10-23 03:00:00,
2013-10-22 20:04:00,63.7,23.9,29.96,North,0,0.0,0.0,22,0.00,,,0.00,WUHU216HW,2013-10-23 03:04:00,
2013-10-22 20:05:00,63.9,24.0,29.96,North,0,0.0,0.0,22,0.00,,,0.00,WUHU216HW,2013-10-23 03:05:00,
2013-10-22 20:09:00,64.1,24.2,29.96,North,0,0.0,0.0,22,0.00,,,0.00,WUHU216HW,2013-10-23 03:09:00,
2013-10-22 20:10:00,64.1,24.2,29.96,North,0,0.0,0.0,22,0.00,,,0.00,WUHU216HW,2013-10-23 03:10:00,
2013-10-22 20:12:00,64.1,23.2,29.96,North,0,0.0,0.0,21,0.00,,,0.00,WUHU216HW,2013-10-23 03:12:00,
2013-10-22 20:14:00,64.1,23.2,29.96,North,0,0.0,0.0,21,0.00,,,0.00,WUHU216HW,2013-10-23 03:14:00,
2013-10-22 20:15:00,64.1,23.2,29.97,North,0,0.0,0.0,21,0.00,,,0.00,WUHU216HW,2013-10-23 03:15:00,
2013-10-22 20:16:00,64.1,23.2,29.96,North,0,0.0,0.0,21,0.00,,,0.00,WUHU216HW,2013-10-23 03:16:00,
2013-10-22 20:17:00,64.1,24.2,29.97,North,0,0.0,0.0,22,0.00,,,0.00,WUHU216HW,2013-10-23 03:17:00,
2013-10-22 20:19:00,64.1,24.2,29.97,North,0,0.0,0.0,22,0.00,,,0.00,WUHU216HW,2013-10-23 03:19:00,
2013-10-22 20:21:00,63.9,24.0,29.97,North,0,0.0,0.0,22,0.00,,,0.00,WUHU216HW,2013-10-23 03:21:00,
2013-10-22 20:22:00,63.7,23.9,29.97,North,0,0.0,0.0,22,0.00,,,0.00,WUHU216HW,2013-10-23 03:22:00,
2013-10-22 20:25:00,63.7,23.9,29.97,North,0,0.0,0.0,22,0.00,,,0.00,WUHU216HW,2013-10-23 03:25:00,
2013-10-22 20:26:00,63.5,23.8,29.97,North,0,0.0,0.0,22,0.00,,,0.00,WUHU216HW,2013-10-23 03:26:00,
2013-10-22 20:27:00,63.5,23.8,29.97,North,0,0.0,0.0,22,0.00,,,0.00,WUHU216HW,2013-10-23 03:27:00,
2013-10-22 20:28:00,63.5,23.8,29.97,North,0,0.0,0.0,22,0.00,,,0.00,WUHU216HW,2013-10-23 03:28:00,
2013-10-22 20:30:00,63.4,23.6,29.97,North,0,0.0,0.0,22,0.00,,,0.00,WUHU216HW,2013-10-23 03:30:00,
2013-10-22 20:31:00,63.2,23.5,29.97,North,0,0.0,0.0,22,0.00,,,0.00,WUHU216HW,2013-10-23 03:31:00,
2013-10-22 20:32:00,63.2,23.5,29.97,North,0,0.0,0.0,22,0.00,,,0.00,WUHU216HW,2013-10-23 03:32:00,
2013-10-22 20:33:00,63.2,23.5,29.97,North,0,0.0,0.0,22,0.00,,,0.00,WUHU216HW,2013-10-23 03:33:00,
2013-10-22 20:36:00,63.0,23.3,29.97,North,0,0.0,0.0,22,0.00,,,0.00,WUHU216HW,2013-10-23 03:36:00,
2013-10-22 20:37:00,63.0,23.3,29.97,North,0,0.0,0.0,22,0.00,,,0.00,WUHU216HW,2013-10-23 03:37:00,
2013-10-22 20:38:00,63.0,23.3,29.97,North,0,0.0,0.0,22,0.00,,,0.00,WUHU216HW,2013-10-23 03:38:00,
2013-10-22 20:41:00,62.8,23.1,29.97,North,0,0.0,0.0,22,0.00,,,0.00,WUHU216HW,2013-10-23 03:41:00,
2013-10-22 20:42:00,62.8,23.1,29.97,North,0,0.0,0.0,22,0.00,,,0.00,WUHU216HW,2013-10-23 03:42:00,
2013-10-22 20:43:00,62.6,23.1,29.97,North,0,0.0,0.0,22,0.00,,,0.00,WUHU216HW,2013-10-23 03:43:00,
2013-10-22 20:44:00,62.6,23.1,29.97,North,0,0.0,0.0,22,0.00,,,0.00,WUHU216HW,2013-10-23 03:44:00,
2013-10-22 20:47:00,62.5,22.9,29.97,North,0,0.0,0.0,22,0.00,,,0.00,WUHU216HW,2013-10-23 03:47:00,
2013-10-22 20:48:00,62.3,22.7,29.97,North,0,0.0,0.0,22,0.00,,,0.00,WUHU216HW,2013-10-23 03:48:00,
2013-10-22 20:50:00,62.3,23.7,29.97,North,0,0.0,0.0,23,0.00,,,0.00,WUHU216HW,2013-10-23 03:50:00,
2013-10-22 20:52:00,62.3,23.7,29.97,North,0,0.0,0.0,23,0.00,,,0.00,WUHU216HW,2013-10-23 03:52:00,
2013-10-22 20:53:00,62.3,23.7,29.97,North,0,0.0,0.0,23,0.00,,,0.00,WUHU216HW,2013-10-23 03:53:00,
2013-10-22 20:54:00,62.3,23.7,29.97,North,0,0.0,0.0,23,0.00,,,0.00,WUHU216HW,2013-10-23 03:54:00,
2013-10-22 20:56:00,62.3,23.7,29.97,North,0,0.0,0.0,23,0.00,,,0.00,WUHU216HW,2013-10-23 03:56:00,
2013-10-22 20:57:00,62.3,22.7,29.97,North,0,0.0,0.0,22,0.00,,,0.00,WUHU216HW,2013-10-23 03:57:00,
2013-10-22 20:58:00,62.3,22.7,29.97,North,0,0.0,0.0,22,0.00,,,0.00,WUHU216HW,2013-10-23 03:58:00,
2013-10-22 20:59:00,62.3,23.7,29.97,North,0,0.0,0.0,23,0.00,,,0.00,WUHU216HW,2013-10-23 03:59:00,
2013-10-22 21:01:00,62.1,23.5,29.97,North,0,0.0,0.0,23,0.00,,,0.00,WUHU216HW,2013-10-23 04:01:00,
2013-10-22 21:03:00,62.1,23.5,29.97,North,0,0.0,0.0,23,0.00,,,0.00,WUHU216HW,2013-10-23 04:03:00,
2013-10-22 21:06:00,61.9,23.4,29.97,North,0,0.0,0.0,23,0.00,,,0.00,WUHU216HW,2013-10-23 04:06:00,
2013-10-22 21:07:00,61.9,23.4,29.97,North,0,0.0,0.0,23,0.00,,,0.00,WUHU216HW,2013-10-23 04:07:00,
2013-10-22 21:08:00,61.9,22.4,29.97,North,0,0.0,0.0,22,0.00,,,0.00,WUHU216HW,2013-10-23 04:08:00,
2013-10-22 21:12:00,61.6,22.2,29.97,North,0,0.0,0.0,22,0.00,,,0.00,WUHU216HW,2013-10-23 04:12:00,
2013-10-22 21:14:00,61.6,22.2,29.97,North,0,0.0,0.0,22,0.00,,,0.00,WUHU216HW,2013-10-23 04:14:00,
2013-10-22 21:15:00,61.4,22.0,29.97,North,0,0.0,0.0,22,0.00,,,0.00,WUHU216HW,2013-10-23 04:15:00,
2013-10-22 21:17:00,61.4,22.0,29.97,North,0,0.0,0.0,22,0.00,,,0.00,WUHU216HW,2013-10-23 04:17:00,
2013-10-22 21:18:00,61.4,22.0,29.97,North,0,0.0,0.0,22,0.00,,,0.00,WUHU216HW,2013-10-23 04:18:00,
2013-10-22 21:19:00,61.2,21.8,29.98,North,0,0.0,0.0,22,0.00,,,0.00,WUHU216HW,2013-10-23 04:19:00,
2013-10-22 21:22:00,61.2,22.8,29.97,North,0,0.0,0.0,23,0.00,,,0.00,WUHU216HW,2013-10-23 04:22:00,
2013-10-22 21:23:00,61.2,22.8,29.97,North,0,0.0,0.0,23,0.00,,,0.00,WUHU216HW,2013-10-23 04:23:00,
2013-10-22 21:24:00,61.2,22.8,29.98,North,0,0.0,0.0,23,0.00,,,0.00,WUHU216HW,2013-10-23 04:24:00,
2013-10-22 21:27:00,61.0,22.6,29.98,North,0,0.0,0.0,23,0.00,,,0.00,WUHU216HW,2013-10-23 04:27:00,
2013-10-22 21:28:00,61.0,22.6,29.98,North,0,0.0,0.0,23,0.00,,,0.00,WUHU216HW,2013-10-23 04:28:00,
2013-10-22 21:30:00,61.0,22.6,29.98,North,0,0.0,0.0,23,0.00,,,0.00,WUHU216HW,2013-10-23 04:30:00,
2013-10-22 21:31:00,61.0,22.6,29.98,North,0,0.0,0.0,23,0.00,,,0.00,WUHU216HW,2013-10-23 04:31:00,
2013-10-22 21:32:00,60.8,22.5,29.97,North,0,0.0,0.0,23,0.00,,,0.00,WUHU216HW,2013-10-23 04:32:00,
2013-10-22 21:33:00,60.8,22.5,29.97,North,0,0.0,0.0,23,0.00,,,0.00,WUHU216HW,2013-10-23 04:33:00,
2013-10-22 21:34:00,60.8,22.5,29.98,North,0,0.0,0.0,23,0.00,,,0.00,WUHU216HW,2013-10-23 04:34:00,
2013-10-22 21:35:00,60.8,22.5,29.98,North,0,0.0,0.0,23,0.00,,,0.00,WUHU216HW,2013-10-23 04:35:00,
2013-10-22 21:36:00,60.8,22.5,29.98,North,0,0.0,0.0,23,0.00,,,0.00,WUHU216HW,2013-10-23 04:36:00,
2013-10-22 21:38:00,60.8,22.5,29.98,North,0,0.0,0.0,23,0.00,,,0.00,WUHU216HW,2013-10-23 04:38:00,
2013-10-22 21:39:00,60.8,22.5,29.98,North,0,0.0,0.0,23,0.00,,,0.00,WUHU216HW,2013-10-23 04:39:00,
2013-10-22 21:41:00,60.8,22.5,29.98,North,0,0.0,0.0,23,0.00,,,0.00,WUHU216HW,2013-10-23 04:41:00,
2013-10-22 21:42:00,60.8,22.5,29.98,North,0,0.0,0.0,23,0.00,,,0.00,WUHU216HW,2013-10-23 04:42:00,
2013-10-22 21:43:00,60.8,22.5,29.98,North,0,0.0,0.0,23,0.00,,,0.00,WUHU216HW,2013-10-23 04:43:00,
2013-10-22 21:44:00,60.8,22.5,29.98,North,0,0.0,0.0,23,0.00,,,0.00,WUHU216HW,2013-10-23 04:44:00,
2013-10-22 21:46:00,60.7,22.3,29.98,North,0,0.0,0.0,23,0.00,,,0.00,WUHU216HW,2013-10-23 04:46:00,
2013-10-22 21:47:00,60.7,22.3,29.98,North,0,0.0,0.0,23,0.00,,,0.00,WUHU216HW,2013-10-23 04:47:00,
2013-10-22 21:48:00,60.7,22.3,29.98,North,0,0.0,0.0,23,0.00,,,0.00,WUHU216HW,2013-10-23 04:48:00,
2013-10-22 21:49:00,60.7,22.3,29.98,North,0,0.0,0.0,23,0.00,,,0.00,WUHU216HW,2013-10-23 04:49:00,
2013-10-22 21:52:00,60.7,22.3,29.98,North,0,0.0,0.0,23,0.00,,,0.00,WUHU216HW,2013-10-23 04:52:00,
2013-10-22 21:54:00,60.5,22.1,29.98,North,0,0.0,0.0,23,0.00,,,0.00,WUHU216HW,2013-10-23 04:54:00,
2013-10-22 21:55:00,60.5,22.1,29.98,North,0,0.0,0.0,23,0.00,,,0.00,WUHU216HW,2013-10-23 04:55:00,
2013-10-22 21:57:00,60.5,22.1,29.98,North,0,0.0,0.0,23,0.00,,,0.00,WUHU216HW,2013-10-23 04:57:00,
2013-10-22 21:59:00,60.5,22.1,29.98,North,0,0.0,0.0,23,0.00,,,0.00,WUHU216HW,2013-10-23 04:59:00,
2013-10-22 22:01:00,60.5,22.1,29.98,North,0,0.0,0.0,23,0.00,,,0.00,WUHU216HW,2013-10-23 05:01:00,
2013-10-22 22:03:00,60.5,22.1,29.98,North,0,0.0,0.0,23,0.00,,,0.00,WUHU216HW,2013-10-23 05:03:00,
2013-10-22 22:05:00,60.5,22.1,29.98,North,0,0.0,0.0,23,0.00,,,0.00,WUHU216HW,2013-10-23 05:05:00,
2013-10-22 22:06:00,60.5,22.1,29.98,North,0,0.0,0.0,23,0.00,,,0.00,WUHU216HW,2013-10-23 05:06:00,
2013-10-22 22:08:00,60.5,22.1,29.98,North,0,0.0,0.0,23,0.00,,,0.00,WUHU216HW,2013-10-23 05:08:00,
2013-10-22 22:09:00,60.5,22.1,29.98,North,0,0.0,0.0,23,0.00,,,0.00,WUHU216HW,2013-10-23 05:09:00,
2013-10-22 22:10:00,60.5,22.1,29.98,North,0,0.0,0.0,23,0.00,,,0.00,WUHU216HW,2013-10-23 05:10:00,
2013-10-22 22:11:00,60.5,22.1,29.98,North,0,0.0,0.0,23,0.00,,,0.00,WUHU216HW,2013-10-23 05:11:00,
2013-10-22 22:13:00,60.5,22.1,29.98,North,0,0.0,0.0,23,0.00,,,0.00,WUHU216HW,2013-10-23 05:13:00,
2013-10-22 22:14:00,60.5,22.1,29.98,North,0,0.0,0.0,23,0.00,,,0.00,WUHU216HW,2013-10-23 05:14:00,
2013-10-22 22:15:00,60.5,22.1,29.98,North,0,0.0,0.0,23,0.00,,,0.00,WUHU216HW,2013-10-23 05:15:00,
2013-10-22 22:16:00,60.5,22.1,29.98,North,0,0.0,0.0,23,0.00,,,0.00,WUHU216HW,2013-10-23 05:16:00,
2013-10-22 22:18:00,60.5,22.1,29.98,North,0,0.0,0.0,23,0.00,,,0.00,WUHU216HW,2013-10-23 05:18:00,
2013-10-22 22:20:00,60.3,22.1,29.98,North,0,0.0,0.0,23,0.00,,,0.00,WUHU216HW,2013-10-23 05:20:00,
2013-10-22 22:21:00,60.3,22.1,29.98,North,0,0.0,0.0,23,0.00,,,0.00,WUHU216HW,2013-10-23 05:21:00,
2013-10-22 22:22:00,60.3,22.1,29.98,North,0,0.0,0.0,23,0.00,,,0.00,WUHU216HW,2013-10-23 05:22:00,
2013-10-22 22:23:00,60.3,22.1,29.98,North,0,0.0,0.0,23,0.00,,,0.00,WUHU216HW,2013-10-23 05:23:00,
2013-10-22 22:25:00,60.1,21.9,29.98,North,0,0.0,0.0,23,0.00,,,0.00,WUHU216HW,2013-10-23 05:25:00,
2013-10-22 22:26:00,60.1,21.9,29.98,North,0,0.0,0.0,23,0.00,,,0.00,WUHU216HW,2013-10-23 05:26:00,
2013-10-22 22:29:00,59.9,21.7,29.98,North,0,0.0,0.0,23,0.00,,,0.00,WUHU216HW,2013-10-23 05:29:00,
2013-10-22 22:30:00,59.8,21.5,29.98,North,0,0.0,0.0,23,0.00,,,0.00,WUHU216HW,2013-10-23 05:30:00,
2013-10-22 22:31:00,59.8,21.5,29.98,North,0,0.0,0.0,23,0.00,,,0.00,WUHU216HW,2013-10-23 05:31:00,
2013-10-22 22:32:00,59.8,21.5,29.98,North,0,0.0,0.0,23,0.00,,,0.00,WUHU216HW,2013-10-23 05:32:00,
2013-10-22 22:34:00,59.6,21.4,29.98,North,0,0.0,0.0,23,0.00,,,0.00,WUHU216HW,2013-10-23 05:34:00,
2013-10-22 22:35:00,59.4,21.3,29.98,North,0,0.0,0.0,23,0.00,,,0.00,WUHU216HW,2013-10-23 05:35:00,
2013-10-22 22:37:00,59.4,21.3,29.98,North,0,0.0,0.0,23,0.00,,,0.00,WUHU216HW,2013-10-23 05:37:00,
2013-10-22 22:40:00,59.2,21.1,29.98,North,0,0.0,0.0,23,0.00,,,0.00,WUHU216HW,2013-10-23 05:40:00,
2013-10-22 22:41:00,59.2,22.1,29.98,North,0,0.0,0.0,24,0.00,,,0.00,WUHU216HW,2013-10-23 05:41:00,
2013-10-22 22:42:00,59.0,21.9,29.98,North,0,0.0,0.0,24,0.00,,,0.00,WUHU216HW,2013-10-23 05:42:00,
2013-10-22 22:43:00,59.0,21.9,29.98,North,0,0.0,0.0,24,0.00,,,0.00,WUHU216HW,2013-10-23 05:43:00,
2013-10-22 22:45:00,58.7,22.6,29.98,North,0,0.0,0.0,25,0.00,,,0.00,WUHU216HW,2013-10-23 05:45:00,
2013-10-22 22:46:00,58.5,22.4,29.98,North,0,0.0,0.0,25,0.00,,,0.00,WUHU216HW,2013-10-23 05:46:00,
2013-10-22 22:48:00,58.1,22.1,29.98,North,0,0.0,0.0,25,0.00,,,0.00,WUHU216HW,2013-10-23 05:48:00,
2013-10-22 22:50:00,58.0,22.0,29.98,North,0,0.0,0.0,25,0.00,,,0.00,WUHU216HW,2013-10-23 05:50:00,
2013-10-22 22:51:00,57.8,21.8,29.98,North,0,0.0,0.0,25,0.00,,,0.00,WUHU216HW,2013-10-23 05:51:00,
2013-10-22 22:53:00,57.6,21.6,29.98,North,0,0.0,0.0,25,0.00,,,0.00,WUHU216HW,2013-10-23 05:53:00,
2013-10-22 22:54:00,57.6,21.6,29.98,North,0,0.0,0.0,25,0.00,,,0.00,WUHU216HW,2013-10-23 05:54:00,
2013-10-22 22:56:00,57.6,21.6,29.98,North,0,0.0,0.0,25,0.00,,,0.00,WUHU216HW,2013-10-23 05:56:00,
2013-10-22 22:57:00,57.6,21.6,29.98,North,0,0.0,0.0,25,0.00,,,0.00,WUHU216HW,2013-10-23 05:57:00,
2013-10-22 22:58:00,57.6,21.6,29.98,North,0,0.0,0.0,25,0.00,,,0.00,WUHU216HW,2013-10-23 05:58:00,
2013-10-22 22:59:00,57.6,21.6,29.98,North,0,0.0,0.0,25,0.00,,,0.00,WUHU216HW,2013-10-23 05:59:00,
2013-10-22 23:01:00,57.4,21.5,29.98,North,0,0.0,0.0,25,0.00,,,0.00,WUHU216HW,2013-10-23 06:01:00,
2013-10-22 23:02:00,57.4,21.5,29.98,North,0,0.0,0.0,25,0.00,,,0.00,WUHU216HW,2013-10-23 06:02:00,
2013-10-22 23:04:00,57.6,23.6,29.98,North,0,0.0,0.0,27,0.00,,,0.00,WUHU216HW,2013-10-23 06:04:00,
2013-10-22 23:06:00,57.6,23.6,29.98,North,0,0.0,0.0,27,0.00,,,0.00,WUHU216HW,2013-10-23 06:06:00,
2013-10-22 23:07:00,57.6,23.6,29.98,North,0,0.0,0.0,27,0.00,,,0.00,WUHU216HW,2013-10-23 06:07:00,
2013-10-22 23:08:00,57.6,22.6,29.98,North,0,0.0,0.0,26,0.00,,,0.00,WUHU216HW,2013-10-23 06:08:00,
2013-10-22 23:09:00,57.6,22.6,29.98,North,0,0.0,0.0,26,0.00,,,0.00,WUHU216HW,2013-10-23 06:09:00,
2013-10-22 23:10:00,57.6,23.6,29.98,North,0,0.0,0.0,27,0.00,,,0.00,WUHU216HW,2013-10-23 06:10:00,
2013-10-22 23:12:00,57.6,23.6,29.98,North,0,0.0,0.0,27,0.00,,,0.00,WUHU216HW,2013-10-23 06:12:00,
2013-10-22 23:13:00,57.6,23.6,29.98,North,0,0.0,0.0,27,0.00,,,0.00,WUHU216HW,2013-10-23 06:13:00,
2013-10-22 23:14:00,57.6,22.6,29.98,North,0,0.0,0.0,26,0.00,,,0.00,WUHU216HW,2013-10-23 06:14:00,
2013-10-22 23:15:00,57.8,22.8,29.98,North,0,0.0,0.0,26,0.00,,,0.00,WUHU216HW,2013-10-23 06:15:00,
2013-10-22 23:17:00,57.8,23.7,29.98,North,0,0.0,0.0,27,0.00,,,0.00,WUHU216HW,2013-10-23 06:17:00,
2013-10-22 23:18:00,57.8,23.7,29.98,North,0,0.0,0.0,27,0.00,,,0.00,WUHU216HW,2013-10-23 06:18:00,
2013-10-22 23:19:00,57.8,22.8,29.98,North,0,0.0,0.0,26,0.00,,,0.00,WUHU216HW,2013-10-23 06:19:00,
2013-10-22 23:20:00,57.8,22.8,29.98,North,0,0.0,0.0,26,0.00,,,0.00,WUHU216HW,2013-10-23 06:20:00,
2013-10-22 23:21:00,57.8,21.8,29.98,North,0,0.0,0.0,25,0.00,,,0.00,WUHU216HW,2013-10-23 06:21:00,
2013-10-22 23:23:00,57.8,21.8,29.98,North,0,0.0,0.0,25,0.00,,,0.00,WUHU216HW,2013-10-23 06:23:00,
2013-10-22 23:24:00,57.8,21.8,29.98,North,0,0.0,0.0,25,0.00,,,0.00,WUHU216HW,2013-10-23 06:24:00,
2013-10-22 23:25:00,57.8,21.8,29.98,North,0,0.0,0.0,25,0.00,,,0.00,WUHU216HW,2013-10-23 06:25:00,
2013-10-22 23:26:00,57.8,21.8,29.98,North,0,0.0,0.0,25,0.00,,,0.00,WUHU216HW,2013-10-23 06:26:00,
2013-10-22 23:28:00,57.8,21.8,29.98,North,0,0.0,0.0,25,0.00,,,0.00,WUHU216HW,2013-10-23 06:28:00,
2013-10-22 23:29:00,57.8,21.8,29.98,North,0,0.0,0.0,25,0.00,,,0.00,WUHU216HW,2013-10-23 06:29:00,
2013-10-22 23:30:00,57.8,21.8,29.98,North,0,0.0,0.0,25,0.00,,,0.00,WUHU216HW,2013-10-23 06:30:00,
2013-10-22 23:31:00,57.8,21.8,29.98,North,0,0.0,0.0,25,0.00,,,0.00,WUHU216HW,2013-10-23 06:31:00,
2013-10-22 23:32:00,57.8,21.8,29.98,North,0,0.0,0.0,25,0.00,,,0.00,WUHU216HW,2013-10-23 06:32:00,
2013-10-22 23:34:00,57.8,21.8,29.98,North,0,0.0,0.0,25,0.00,,,0.00,WUHU216HW,2013-10-23 06:34:00,
2013-10-22 23:35:00,57.6,21.6,29.98,North,0,0.0,0.0,25,0.00,,,0.00,WUHU216HW,2013-10-23 06:35:00,
2013-10-22 23:36:00,57.6,21.6,29.98,North,0,0.0,0.0,25,0.00,,,0.00,WUHU216HW,2013-10-23 06:36:00,
2013-10-22 23:38:00,57.8,21.8,29.97,North,0,0.0,0.0,25,0.00,,,0.00,WUHU216HW,2013-10-23 06:38:00,
2013-10-22 23:40:00,57.8,21.8,29.98,North,0,0.0,0.0,25,0.00,,,0.00,WUHU216HW,2013-10-23 06:40:00,
2013-10-22 23:41:00,57.8,21.8,29.97,North,0,0.0,0.0,25,0.00,,,0.00,WUHU216HW,2013-10-23 06:41:00,
2013-10-22 23:42:00,57.8,21.8,29.98,North,0,0.0,0.0,25,0.00,,,0.00,WUHU216HW,2013-10-23 06:42:00,
2013-10-22 23:43:00,57.8,21.8,29.98,North,0,0.0,0.0,25,0.00,,,0.00,WUHU216HW,2013-10-23 06:43:00,
2013-10-22 23:45:00,57.8,21.8,29.98,North,0,0.0,0.0,25,0.00,,,0.00,WUHU216HW,2013-10-23 06:45:00,
2013-10-22 23:46:00,57.8,21.8,29.98,North,0,0.0,0.0,25,0.00,,,0.00,WUHU216HW,2013-10-23 06:46:00,
2013-10-22 23:47:00,57.8,21.8,29.98,North,0,0.0,0.0,25,0.00,,,0.00,WUHU216HW,2013-10-23 06:47:00,
2013-10-22 23:48:00,57.6,21.6,29.98,North,0,0.0,0.0,25,0.00,,,0.00,WUHU216HW,2013-10-23 06:48:00,
2013-10-22 23:51:00,57.6,21.6,29.98,North,0,0.0,0.0,25,0.00,,,0.00,WUHU216HW,2013-10-23 06:51:00,
2013-10-22 23:52:00,57.6,21.6,29.98,North,0,0.0,0.0,25,0.00,,,0.00,WUHU216HW,2013-10-23 06:52:00,
2013-10-22 23:55:00,57.6,21.6,29.98,North,0,0.0,0.0,25,0.00,,,0.00,WUHU216HW,2013-10-23 06:55:00,
2013-10-22 23:56:00,57.4,22.4,29.98,North,0,0.0,0.0,26,0.00,,,0.00,WUHU216HW,2013-10-23 06:56:00,
2013-10-22 23:57:00,57.4,22.4,29.98,North,0,0.0,0.0,26,0.00,,,0.00,WUHU216HW,2013-10-23 06:57:00,
2013-10-22 23:58:00,57.4,21.5,29.97,North,0,0.0,0.0,25,0.00,,,0.00,WUHU216HW,2013-10-23 06:58:00,